M I D A S
Marine Information and Data Acquisition System
Tripno 1491 of the Zeeleeuw from 2008-05-23 06:41:36 to 2008-05-23 13:12:48
Back to CruiseResearch ActivitiesStationsMapUnderway DataData graphs

EquipmentUnitsComment
TimeDGPSUTC
LatitudeDGPSDM.mWGS84
LongitudeDGPSDM.mWGS84
TemperatureSBE03/SBE38deg celciusITS90
ConductivitySBE21S/mITS90
SalinitySBE21 Practical Salinity Units
ChlorophylAChelsea fluorimeterg/lCalibrated in Aceton
Missing or incorrect values are displayed as -999
Sea surface data collected by the RV Zeeleeuw from 2008-05-23 06:42:27 to 2008-05-23 13:19:42
                                                                                    Next 1000 lines
Time Latitude Longitude Temperature Conductivity Salinity ChlorophylA
2008-05-23 06:42:37 51°13.623 2°56.048 18.7487 0.00969 0.054752 -1.766697
2008-05-23 06:42:43 51°13.623 2°56.048 18.7449 0.00969 0.054752 -1.766697
2008-05-23 06:42:47 51°13.623 2°56.048 18.7451 0.00969 0.054752 -1.731873
2008-05-23 06:42:52 51°13.623 2°56.048 18.7457 0.00969 0.054752 -1.731873
2008-05-23 06:42:57 51°13.623 2°56.047 18.7466 0.00969 0.054752 -1.731873
2008-05-23 06:43:02 51°13.622 2°56.047 18.7445 0.00969 0.054752 -1.731873
2008-05-23 06:43:07 51°13.622 2°56.047 18.7394 0.00969 0.054753 -1.731873
2008-05-23 06:43:12 51°13.622 2°56.047 18.7216 0.00969 0.054753 -1.731873
2008-05-23 06:43:17 51°13.622 2°56.047 18.7022 0.00969 0.054753 -1.766697
2008-05-23 06:43:22 51°13.622 2°56.046 18.6607 0.00969 0.054753 -1.766697
2008-05-23 06:43:27 51°13.622 2°56.045 18.6746 0.00969 0.054753 -1.731873
2008-05-23 06:43:32 51°13.623 2°56.043 18.6643 0.00969 0.054754 -1.731873
2008-05-23 06:43:38 51°13.624 2°56.039 18.668 0.00969 0.054754 -1.731873
2008-05-23 06:43:43 51°13.625 2°56.034 18.7062 0.00969 0.054754 -1.731873
2008-05-23 06:43:47 51°13.626 2°56.03 18.7033 0.00969 0.054754 -1.731873
2008-05-23 06:43:52 51°13.627 2°56.024 18.705 0.00969 0.054754 -1.731873
2008-05-23 06:43:57 51°13.629 2°56.018 18.7174 0.00969 0.054754 -1.766697
2008-05-23 06:44:02 51°13.63 2°56.011 18.7195 0.00969 0.054754 -1.731873
2008-05-23 06:44:07 51°13.632 2°56.004 18.7168 0.00969 0.054755 -1.731873
2008-05-23 06:44:12 51°13.633 2°55.996 18.7147 0.00969 0.054755 -1.731873
2008-05-23 06:44:18 51°13.635 2°55.987 18.7155 0.00969 0.054755 -1.731873
2008-05-23 06:44:22 51°13.637 2°55.981 18.7198 0.00969 0.054755 -1.731873
2008-05-23 06:44:28 51°13.639 2°55.971 18.7253 0.00969 0.054756 -1.766697
2008-05-23 06:44:32 51°13.641 2°55.964 18.7262 0.00969 0.054756 -1.731873
2008-05-23 06:44:37 51°13.643 2°55.955 18.7413 0.00969 0.054756 -1.766697
2008-05-23 06:44:42 51°13.645 2°55.946 18.7413 0.00969 0.054756 -1.731873
2008-05-23 06:44:47 51°13.648 2°55.938 18.747 0.00969 0.054756 -1.766697
2008-05-23 06:44:53 51°13.651 2°55.927 18.7627 0.00969 0.054756 -1.766697
2008-05-23 06:44:57 51°13.653 2°55.92 18.7509 0.00969 0.054757 -1.731873
2008-05-23 06:45:02 51°13.656 2°55.911 18.7468 0.00969 0.054758 -1.731873
2008-05-23 06:45:07 51°13.659 2°55.902 18.7467 0.00969 0.054757 -1.731873
2008-05-23 06:45:12 51°13.663 2°55.893 18.7397 0.00969 0.054758 -1.731873
2008-05-23 06:45:17 51°13.666 2°55.884 18.7405 0.00969 0.054758 -1.731873
2008-05-23 06:45:23 51°13.671 2°55.873 18.7336 0.00969 0.054758 -1.731873
2008-05-23 06:45:27 51°13.674 2°55.865 18.7395 0.00969 0.054758 -1.731873
2008-05-23 06:45:33 51°13.678 2°55.854 18.7439 0.00969 0.054758 -1.731873
2008-05-23 06:45:37 51°13.681 2°55.847 18.745 0.00969 0.054758 -1.731873
2008-05-23 06:45:42 51°13.685 2°55.837 18.7376 0.00969 0.054759 -1.731873
2008-05-23 06:45:48 51°13.69 2°55.826 18.7383 0.00969 0.054759 -1.731873
2008-05-23 06:45:52 51°13.694 2°55.819 18.7421 0.00969 0.054759 -1.731873
2008-05-23 06:45:57 51°13.698 2°55.809 18.7604 0.00969 0.054759 -1.731873
2008-05-23 06:46:02 51°13.703 2°55.8 18.7458 0.00969 0.05476 -1.766697
2008-05-23 06:46:07 51°13.708 2°55.791 18.7462 0.00969 0.05476 -1.731873
2008-05-23 06:46:12 51°13.713 2°55.783 18.7493 0.00969 0.05476 -1.731873
2008-05-23 06:46:17 51°13.718 2°55.775 18.7456 0.00969 0.05476 -1.766697
2008-05-23 06:46:22 51°13.723 2°55.767 18.7472 0.00969 0.05476 -1.766697
2008-05-23 06:46:27 51°13.728 2°55.759 18.7471 0.00969 0.05476 -1.731873
2008-05-23 06:46:33 51°13.735 2°55.75 18.7474 0.00969 0.054761 -1.766697
2008-05-23 06:46:37 51°13.739 2°55.744 18.7438 0.00969 0.054761 -1.731873
2008-05-23 06:46:42 51°13.744 2°55.737 18.7471 0.00969 0.054762 -1.766697
2008-05-23 06:46:47 51°13.75 2°55.73 18.7428 0.00969 0.054762 -1.731873
2008-05-23 06:46:52 51°13.756 2°55.723 18.738 0.00969 0.054762 -1.731873
2008-05-23 06:46:57 51°13.761 2°55.717 18.7379 0.00969 0.054762 -1.731873
2008-05-23 06:47:02 51°13.767 2°55.71 18.7433 0.00969 0.054762 -1.766697
2008-05-23 06:47:07 51°13.773 2°55.703 18.7413 0.00969 0.054762 -1.731873
2008-05-23 06:47:12 51°13.779 2°55.695 18.7362 0.00969 0.054762 -1.731873
2008-05-23 06:47:17 51°13.784 2°55.689 18.7305 0.00969 0.054762 -1.731873
2008-05-23 06:47:22 51°13.79 2°55.682 18.7583 0.00969 0.054762 -1.731873
2008-05-23 06:47:27 51°13.796 2°55.676 18.7456 0.00969 0.054763 -1.731873
2008-05-23 06:47:32 51°13.802 2°55.669 18.741 0.00969 0.054763 -1.766697
2008-05-23 06:47:37 51°13.808 2°55.663 18.7427 0.00969 0.054764 -1.731873
2008-05-23 06:47:42 51°13.815 2°55.657 18.757 0.00969 0.054764 -1.766697
2008-05-23 06:47:47 51°13.821 2°55.652 18.7529 0.00969 0.054764 -1.731873
2008-05-23 06:47:52 51°13.828 2°55.647 18.7503 0.00969 0.054764 -1.731873
2008-05-23 06:47:57 51°13.835 2°55.643 18.7544 0.00969 0.054764 -1.731873
2008-05-23 06:48:02 51°13.842 2°55.64 18.7669 0.00969 0.054764 -1.731873
2008-05-23 06:48:07 51°13.849 2°55.637 18.7622 0.00969 0.054765 -1.766697
2008-05-23 06:48:12 51°13.856 2°55.635 18.7659 0.00969 0.054765 -1.731873
2008-05-23 06:48:17 51°13.863 2°55.633 18.761 0.00969 0.054765 -1.731873
2008-05-23 06:48:22 51°13.87 2°55.633 18.7647 0.00969 0.054765 -1.731873
2008-05-23 06:48:27 51°13.876 2°55.633 18.7646 0.00969 0.054765 -1.731873
2008-05-23 06:48:32 51°13.883 2°55.634 18.7561 0.00969 0.054766 -1.731873
2008-05-23 06:48:37 51°13.89 2°55.635 18.7598 0.00969 0.054766 -1.731873
2008-05-23 06:48:42 51°13.897 2°55.637 18.7648 0.00969 0.054767 -1.766697
2008-05-23 06:48:48 51°13.904 2°55.64 18.7683 0.00969 0.054767 -1.766697
2008-05-23 06:48:52 51°13.909 2°55.642 18.7856 0.00969 0.054767 -1.766697
2008-05-23 06:48:57 51°13.915 2°55.645 18.7774 0.00969 0.054767 -1.766697
2008-05-23 06:49:02 51°13.92 2°55.648 18.7723 0.00969 0.054767 -1.731873
2008-05-23 06:49:07 51°13.925 2°55.651 18.8004 0.00969 0.054767 -1.731873
2008-05-23 06:49:12 51°13.929 2°55.654 18.7813 0.00969 0.054768 -1.731873
2008-05-23 06:49:17 51°13.932 2°55.656 18.7981 0.00969 0.054768 -1.731873
2008-05-23 06:49:22 51°13.934 2°55.656 18.7607 0.00969 0.054768 -1.731873
2008-05-23 06:49:27 51°13.934 2°55.656 18.7445 0.00969 0.054769 -1.731873
2008-05-23 06:49:32 51°13.934 2°55.653 18.691 0.00969 0.054769 -1.731873
2008-05-23 06:49:37 51°13.934 2°55.649 18.6552 0.00969 0.054769 -1.766697
2008-05-23 06:49:42 51°13.933 2°55.643 18.5329 0.00969 0.054769 -1.731873
2008-05-23 06:49:47 51°13.933 2°55.636 18.5157 0.00969 0.054769 -1.766697
2008-05-23 06:49:52 51°13.934 2°55.628 18.4621 0.00969 0.054769 -1.766697
2008-05-23 06:49:57 51°13.936 2°55.62 18.5543 0.00969 0.054769 -1.731873
2008-05-23 06:50:02 51°13.938 2°55.611 18.606 0.00969 0.054768 -1.731873
2008-05-23 06:50:07 51°13.942 2°55.601 18.646 0.00969 0.054767 -1.731873
2008-05-23 06:50:11 51°13.946 2°55.593 18.6567 0.00969 0.054768 -1.766697
2008-05-23 06:50:17 51°13.953 2°55.581 18.6489 0.00969 0.054769 -1.731873
2008-05-23 06:50:22 51°13.959 2°55.572 18.6523 0.00969 0.054769 -1.731873
2008-05-23 06:50:27 51°13.966 2°55.563 18.6703 0.00969 0.054769 -1.766697
2008-05-23 06:50:32 51°13.974 2°55.555 18.6797 0.00969 0.054769 -1.766697
2008-05-23 06:50:37 51°13.982 2°55.546 18.6794 0.00969 0.054769 -1.731873
2008-05-23 06:50:42 51°13.991 2°55.537 18.6814 0.00969 0.05477 -1.766697
2008-05-23 06:50:47 51°14.001 2°55.529 18.6851 0.00969 0.054769 -1.731873
2008-05-23 06:50:52 51°14.01 2°55.521 18.701 0.00969 0.054769 -1.731873
2008-05-23 06:50:57 51°14.02 2°55.512 18.6973 0.00969 0.05477 -1.766697
2008-05-23 06:51:02 51°14.031 2°55.502 18.6998 0.00969 0.054771 -1.731873
2008-05-23 06:51:07 51°14.041 2°55.493 18.6961 0.00969 0.054771 -1.766697
2008-05-23 06:51:12 51°14.052 2°55.483 18.6996 0.00969 0.054771 -1.731873
2008-05-23 06:51:17 51°14.064 2°55.474 18.6893 0.00969 0.054771 -1.766697
2008-05-23 06:51:22 51°14.076 2°55.463 18.642 0.00969 0.054771 -1.766697
2008-05-23 06:51:27 51°14.088 2°55.454 18.707 0.00969 0.054771 -1.766697
2008-05-23 06:51:32 51°14.1 2°55.444 18.7099 0.00969 0.054771 -1.731873
2008-05-23 06:51:37 51°14.113 2°55.433 18.6937 0.00969 0.054772 -1.731873
2008-05-23 06:51:42 51°14.125 2°55.421 18.6724 0.00969 0.054773 -1.731873
2008-05-23 06:51:47 51°14.138 2°55.41 18.7222 0.009587 0.054243 -1.731873
2008-05-23 06:51:52 51°14.151 2°55.397 18.7041 0.009587 0.054243 -1.731873
2008-05-23 06:51:57 51°14.163 2°55.383 18.6717 0.009587 0.054245 -1.731873
2008-05-23 06:52:02 51°14.176 2°55.369 18.707 0.00969 0.054773 -1.766697
2008-05-23 06:52:07 51°14.189 2°55.354 18.6646 0.00969 0.054773 -1.731873
2008-05-23 06:52:12 51°14.202 2°55.339 18.681 0.00969 0.054774 -1.766697
2008-05-23 06:52:17 51°14.215 2°55.323 18.7077 0.00969 0.054774 -1.766697
2008-05-23 06:52:22 51°14.228 2°55.307 18.707 0.00969 0.054774 -1.766697
2008-05-23 06:52:27 51°14.241 2°55.29 18.6791 0.00969 0.054775 -1.766697
2008-05-23 06:52:32 51°14.253 2°55.273 18.695 0.00969 0.054774 -1.731873
2008-05-23 06:52:37 51°14.265 2°55.254 18.6263 0.00969 0.054775 -1.731873
2008-05-23 06:52:42 51°14.278 2°55.236 18.6828 0.00969 0.054775 -1.731873
2008-05-23 06:52:47 51°14.29 2°55.218 18.6715 0.00969 0.054775 -1.766697
2008-05-23 06:52:51 51°14.299 2°55.203 18.6219 0.00969 0.054775 -1.766697
2008-05-23 06:52:57 51°14.313 2°55.181 18.7068 0.00969 0.054775 -1.766697
2008-05-23 06:53:02 51°14.325 2°55.162 18.6891 0.00969 0.054775 -1.766697
2008-05-23 06:53:07 51°14.335 2°55.142 18.6598 0.00969 0.054776 -1.766697
2008-05-23 06:53:12 51°14.346 2°55.122 18.6689 0.00969 0.054776 -1.731873
2008-05-23 06:53:16 51°14.355 2°55.105 18.6271 0.00969 0.054776 -1.731873
2008-05-23 06:53:22 51°14.368 2°55.081 18.667 0.00969 0.054777 -1.731873
2008-05-23 06:53:27 51°14.379 2°55.061 18.6077 0.00969 0.054777 -1.766697
2008-05-23 06:53:32 51°14.39 2°55.041 18.5796 0.00969 0.054777 -1.731873
2008-05-23 06:53:37 51°14.403 2°55.023 18.55 0.00969 0.054777 -1.766697
2008-05-23 06:53:42 51°14.416 2°55.005 18.6258 0.00969 0.054777 -1.731873
2008-05-23 06:53:47 51°14.429 2°54.989 18.6539 0.00969 0.054777 -1.731873
2008-05-23 06:53:52 51°14.443 2°54.973 18.6537 0.00969 0.054777 -1.731873
2008-05-23 06:53:57 51°14.457 2°54.957 18.6218 0.00969 0.054777 -1.766697
2008-05-23 06:54:02 51°14.471 2°54.94 18.5691 0.00969 0.054778 -1.731873
2008-05-23 06:54:07 51°14.486 2°54.925 18.6435 0.00969 0.054777 -1.731873
2008-05-23 06:54:12 51°14.5 2°54.909 18.6025 0.00969 0.054779 -1.731873
2008-05-23 06:54:17 51°14.515 2°54.896 18.6463 0.00969 0.054778 -1.731873
2008-05-23 06:54:22 51°14.53 2°54.882 18.6306 0.00969 0.054778 -1.731873
2008-05-23 06:54:27 51°14.545 2°54.87 18.6601 0.00969 0.054779 -1.731873
2008-05-23 06:54:33 51°14.563 2°54.856 18.669 0.00969 0.054779 -1.731873
2008-05-23 06:54:37 51°14.575 2°54.847 18.6729 0.00969 0.054779 -1.766697
2008-05-23 06:54:43 51°14.594 2°54.832 18.6784 0.00969 0.05478 -1.731873
2008-05-23 06:54:48 51°14.608 2°54.82 18.6728 0.00969 0.05478 -1.731873
2008-05-23 06:54:52 51°14.621 2°54.81 18.6827 0.00969 0.05478 -1.731873
2008-05-23 06:54:57 51°14.635 2°54.798 18.6708 0.00969 0.054781 -1.731873
2008-05-23 06:55:03 51°14.653 2°54.784 18.6557 0.00969 0.054781 -1.731873
2008-05-23 06:55:08 51°14.668 2°54.772 18.6621 0.00969 0.054782 -1.731873
2008-05-23 06:55:12 51°14.68 2°54.762 18.6737 0.00969 0.054782 -1.731873
2008-05-23 06:55:17 51°14.696 2°54.751 18.6681 0.00969 0.054782 -1.766697
2008-05-23 06:55:23 51°14.714 2°54.737 18.6585 0.00969 0.054782 -1.766697
2008-05-23 06:55:28 51°14.729 2°54.725 18.6612 0.00969 0.054783 -1.731873
2008-05-23 06:55:32 51°14.741 2°54.715 18.6735 0.009587 0.054255 -1.766697
2008-05-23 06:55:38 51°14.759 2°54.701 18.6515 0.00969 0.054784 -1.731873
2008-05-23 06:55:43 51°14.774 2°54.688 18.6774 0.00969 0.054784 -1.731873
2008-05-23 06:55:48 51°14.788 2°54.676 18.6758 0.009587 0.054256 -1.731873
2008-05-23 06:55:52 51°14.8 2°54.666 18.6521 0.009587 0.054256 -1.731873
2008-05-23 06:55:57 51°14.815 2°54.653 18.6799 0.00969 0.054784 -1.731873
2008-05-23 06:56:02 51°14.83 2°54.64 18.6385 0.00969 0.054785 -1.766697
2008-05-23 06:56:08 51°14.848 2°54.624 18.6512 0.00969 0.054785 -1.766697
2008-05-23 06:56:12 51°14.859 2°54.614 18.6609 0.00969 0.054786 -1.766697
2008-05-23 06:56:17 51°14.874 2°54.601 18.6712 0.009587 0.054257 -1.766697
2008-05-23 06:56:22 51°14.889 2°54.589 18.6552 0.009587 0.054257 -1.766697
2008-05-23 06:56:28 51°14.907 2°54.574 18.6693 0.00969 0.054786 -1.731873
2008-05-23 06:56:32 51°14.919 2°54.564 18.6707 0.00969 0.054786 -1.766697
2008-05-23 06:56:37 51°14.934 2°54.552 18.668 0.00969 0.054786 -1.731873
2008-05-23 06:56:42 51°14.948 2°54.54 18.6507 0.00969 0.054786 -1.766697
2008-05-23 06:56:48 51°14.966 2°54.525 18.6689 0.00969 0.054787 -1.731873
2008-05-23 06:56:53 51°14.981 2°54.512 18.6525 0.00969 0.054787 -1.731873
2008-05-23 06:56:57 51°14.993 2°54.503 18.6638 0.00969 0.054787 -1.766697
2008-05-23 06:57:03 51°15.01 2°54.488 18.6527 0.009587 0.054259 -1.731873
2008-05-23 06:57:08 51°15.025 2°54.476 18.665 0.00969 0.054788 -1.731873
2008-05-23 06:57:12 51°15.037 2°54.466 18.6371 0.00969 0.054788 -1.766697
2008-05-23 06:57:17 51°15.051 2°54.454 18.6255 0.009587 0.054259 -1.766697
2008-05-23 06:57:23 51°15.069 2°54.439 18.6426 0.009587 0.054259 -1.766697
2008-05-23 06:57:28 51°15.084 2°54.427 18.6744 0.00969 0.054788 -1.731873
2008-05-23 06:57:32 51°15.095 2°54.417 18.6462 0.00969 0.054788 -1.731873
2008-05-23 06:57:38 51°15.113 2°54.403 18.6398 0.00969 0.054788 -1.731873
2008-05-23 06:57:43 51°15.128 2°54.391 18.673 0.009587 0.05426 -1.731873
2008-05-23 06:57:48 51°15.143 2°54.379 18.6258 0.00969 0.054789 -1.766697
2008-05-23 06:57:52 51°15.155 2°54.369 18.6478 0.00969 0.054789 -1.766697
2008-05-23 06:57:57 51°15.17 2°54.357 18.6657 0.00969 0.05479 -1.731873
2008-05-23 06:58:03 51°15.188 2°54.342 18.6267 0.00969 0.05479 -1.731873
2008-05-23 06:58:08 51°15.203 2°54.33 18.6672 0.00969 0.05479 -1.766697
2008-05-23 06:58:12 51°15.215 2°54.32 18.663 0.009587 0.054262 -1.766697
2008-05-23 06:58:17 51°15.23 2°54.308 18.6611 0.00969 0.05479 -1.731873
2008-05-23 06:58:22 51°15.245 2°54.296 18.6651 0.00969 0.05479 -1.731873
2008-05-23 06:58:27 51°15.26 2°54.283 18.6636 0.009587 0.054262 -1.731873
2008-05-23 06:58:32 51°15.275 2°54.27 18.6531 0.00969 0.05479 -1.766697
2008-05-23 06:58:37 51°15.29 2°54.258 18.6591 0.00969 0.054791 -1.731873
2008-05-23 06:58:42 51°15.305 2°54.245 18.6611 0.009587 0.054262 -1.766697
2008-05-23 06:58:47 51°15.32 2°54.233 18.6454 0.00969 0.054791 -1.731873
2008-05-23 06:58:52 51°15.335 2°54.221 18.6315 0.00969 0.054791 -1.731873
2008-05-23 06:58:57 51°15.35 2°54.209 18.6402 0.00969 0.054791 -1.731873
2008-05-23 06:59:01 51°15.362 2°54.199 18.6705 0.009587 0.054262 -1.731873
2008-05-23 06:59:06 51°15.377 2°54.187 18.6512 0.00969 0.054791 -1.731873
2008-05-23 06:59:12 51°15.395 2°54.172 18.6375 0.009587 0.054263 -1.766697
2008-05-23 06:59:16 51°15.408 2°54.162 18.6683 0.00969 0.054792 -1.731873
2008-05-23 06:59:21 51°15.423 2°54.149 18.6463 0.00969 0.054792 -1.731873
2008-05-23 06:59:26 51°15.438 2°54.137 18.6698 0.00969 0.054792 -1.766697
2008-05-23 06:59:31 51°15.453 2°54.124 18.6736 0.009587 0.054263 -1.731873
2008-05-23 06:59:36 51°15.468 2°54.112 18.6405 0.00969 0.054792 -1.731873
2008-05-23 06:59:41 51°15.483 2°54.099 18.6664 0.00969 0.054792 -1.766697
2008-05-23 06:59:46 51°15.498 2°54.085 18.6635 0.00969 0.054792 -1.731873
2008-05-23 06:59:51 51°15.513 2°54.072 18.663 0.00969 0.054792 -1.731873
2008-05-23 06:59:56 51°15.528 2°54.059 18.6481 0.009587 0.054264 -1.731873
2008-05-23 07:00:00 51°15.54 2°54.048 18.6598 0.00969 0.054793 -1.731873
2008-05-23 07:00:05 51°15.555 2°54.035 18.6531 0.00969 0.054793 -1.731873
2008-05-23 07:00:10 51°15.57 2°54.021 18.6649 0.00969 0.054793 -1.766697
2008-05-23 07:00:16 51°15.587 2°54.006 18.6707 0.009587 0.054264 -1.766697
2008-05-23 07:00:20 51°15.599 2°53.995 18.6622 0.009587 0.054264 -1.766697
2008-05-23 07:00:25 51°15.614 2°53.981 18.6511 0.009587 0.054264 -1.766697
2008-05-23 07:00:30 51°15.629 2°53.968 18.6534 0.009587 0.054264 -1.731873
2008-05-23 07:00:35 51°15.644 2°53.954 18.6623 0.00969 0.054794 -1.731873
2008-05-23 07:00:40 51°15.659 2°53.941 18.6617 0.009587 0.054265 -1.766697
2008-05-23 07:00:45 51°15.674 2°53.928 18.6641 0.009587 0.054265 -1.731873
2008-05-23 07:00:49 51°15.686 2°53.917 18.6677 0.009587 0.054265 -1.731873
2008-05-23 07:00:54 51°15.701 2°53.904 18.6668 0.00969 0.054794 -1.731873
2008-05-23 07:01:00 51°15.718 2°53.887 18.6456 0.009587 0.054266 -1.731873
2008-05-23 07:01:04 51°15.73 2°53.876 18.6248 0.00969 0.054794 -1.766697
2008-05-23 07:01:09 51°15.745 2°53.863 18.6367 0.009587 0.054266 -1.731873
2008-05-23 07:01:14 51°15.76 2°53.85 18.662 0.009587 0.054266 -1.731873
2008-05-23 07:01:19 51°15.776 2°53.838 18.6778 0.009587 0.054266 -1.731873
2008-05-23 07:01:24 51°15.791 2°53.825 18.6757 0.00969 0.054794 -1.731873
2008-05-23 07:01:29 51°15.806 2°53.813 18.6849 0.00969 0.054794 -1.766697
2008-05-23 07:01:34 51°15.821 2°53.799 18.6512 0.00969 0.054794 -1.766697
2008-05-23 07:01:39 51°15.836 2°53.786 18.6637 0.009587 0.054266 -1.731873
2008-05-23 07:01:44 51°15.851 2°53.773 18.6666 0.009587 0.054266 -1.731873
2008-05-23 07:01:49 51°15.866 2°53.759 18.6519 0.009587 0.054266 -1.731873
2008-05-23 07:01:53 51°15.878 2°53.748 18.6308 0.00969 0.054795 -1.731873
2008-05-23 07:01:58 51°15.892 2°53.735 18.6502 0.009587 0.054266 -1.731873
2008-05-23 07:02:03 51°15.907 2°53.721 18.6235 0.009587 0.054267 -1.731873
2008-05-23 07:02:09 51°15.925 2°53.704 18.6087 0.00969 0.054796 -1.731873
2008-05-23 07:02:14 51°15.94 2°53.69 18.6431 0.00969 0.054796 -1.731873
2008-05-23 07:02:19 51°15.954 2°53.676 18.627 0.00969 0.054796 -1.731873
2008-05-23 07:02:24 51°15.969 2°53.662 18.6368 0.00969 0.054796 -1.766697
2008-05-23 07:02:29 51°15.984 2°53.649 18.6656 0.00969 0.054796 -1.731873
2008-05-23 07:02:34 51°15.999 2°53.635 18.6639 0.00969 0.054796 -1.731873
2008-05-23 07:02:39 51°16.014 2°53.622 18.6659 0.009587 0.054268 -1.731873
2008-05-23 07:02:44 51°16.029 2°53.608 18.6234 0.00969 0.054796 -1.731873
2008-05-23 07:02:49 51°16.044 2°53.595 18.6427 0.00969 0.054796 -1.731873
2008-05-23 07:02:54 51°16.059 2°53.58 18.6688 0.009587 0.054268 -1.731873
2008-05-23 07:02:59 51°16.073 2°53.567 18.6572 0.009587 0.054268 -1.731873
2008-05-23 07:03:04 51°16.088 2°53.552 18.6414 0.00969 0.054797 -1.731873
2008-05-23 07:03:09 51°16.102 2°53.537 18.6641 0.009587 0.054268 -1.766697
2008-05-23 07:03:14 51°16.117 2°53.522 18.6477 0.009587 0.054268 -1.766697
2008-05-23 07:03:19 51°16.131 2°53.507 18.6557 0.009587 0.054268 -1.766697
2008-05-23 07:03:24 51°16.146 2°53.491 18.661 0.009587 0.054268 -1.731873
2008-05-23 07:03:29 51°16.16 2°53.476 18.6559 0.009587 0.054268 -1.731873
2008-05-23 07:03:34 51°16.175 2°53.46 18.6686 0.009587 0.054268 -1.731873
2008-05-23 07:03:39 51°16.189 2°53.445 18.6533 0.009587 0.054268 -1.731873
2008-05-23 07:03:44 51°16.203 2°53.429 18.6672 0.009587 0.054269 -1.731873
2008-05-23 07:03:49 51°16.218 2°53.414 18.6378 0.009587 0.054269 -1.731873
2008-05-23 07:03:54 51°16.232 2°53.398 18.6557 0.009587 0.054268 -1.766697
2008-05-23 07:03:59 51°16.246 2°53.383 18.6597 0.009587 0.054268 -1.731873
2008-05-23 07:04:04 51°16.261 2°53.368 18.652 0.009587 0.054269 -1.731873
2008-05-23 07:04:09 51°16.275 2°53.352 18.6643 0.009587 0.054269 -1.766697
2008-05-23 07:04:14 51°16.29 2°53.337 18.6611 0.00969 0.054798 -1.731873
2008-05-23 07:04:19 51°16.304 2°53.321 18.6581 0.00969 0.054798 -1.731873
2008-05-23 07:04:24 51°16.318 2°53.306 18.6682 0.009587 0.054269 -1.766697
2008-05-23 07:04:29 51°16.333 2°53.291 18.6436 0.009587 0.054269 -1.766697
2008-05-23 07:04:34 51°16.347 2°53.275 18.6522 0.009587 0.05427 -1.766697
2008-05-23 07:04:39 51°16.362 2°53.26 18.64 0.00969 0.054799 -1.766697
2008-05-23 07:04:44 51°16.376 2°53.245 18.6758 0.009587 0.05427 -1.731873
2008-05-23 07:04:49 51°16.39 2°53.229 18.6776 0.009587 0.05427 -1.731873
2008-05-23 07:04:54 51°16.405 2°53.214 18.6715 0.00969 0.054799 -1.731873
2008-05-23 07:04:59 51°16.419 2°53.199 18.6685 0.009587 0.05427 -1.731873
2008-05-23 07:05:04 51°16.434 2°53.184 18.6632 0.009587 0.05427 -1.731873
2008-05-23 07:05:09 51°16.448 2°53.169 18.6696 0.00969 0.054799 -1.731873
2008-05-23 07:05:13 51°16.46 2°53.157 18.6643 0.00969 0.054799 -1.731873
2008-05-23 07:05:19 51°16.477 2°53.138 18.6553 0.00969 0.054799 -1.731873
2008-05-23 07:05:24 51°16.492 2°53.123 18.6451 0.009587 0.05427 -1.731873
2008-05-23 07:05:29 51°16.506 2°53.108 18.6707 0.009587 0.05427 -1.731873
2008-05-23 07:05:34 51°16.521 2°53.093 18.6524 0.009587 0.05427 -1.731873
2008-05-23 07:05:39 51°16.536 2°53.078 18.6626 0.009587 0.054271 -1.731873
2008-05-23 07:05:44 51°16.55 2°53.063 18.6674 0.009587 0.054271 -1.731873
2008-05-23 07:05:49 51°16.565 2°53.048 18.6532 0.009587 0.054271 -1.731873
2008-05-23 07:05:54 51°16.579 2°53.033 18.6651 0.009587 0.054271 -1.766697
2008-05-23 07:05:59 51°16.594 2°53.018 18.6729 0.009587 0.054271 -1.731873
2008-05-23 07:06:04 51°16.608 2°53.003 18.6598 0.009587 0.054272 -1.766697
2008-05-23 07:06:09 51°16.623 2°52.987 18.6369 0.009587 0.054272 -1.731873
2008-05-23 07:06:14 51°16.637 2°52.972 18.666 0.009587 0.054272 -1.766697
2008-05-23 07:06:19 51°16.651 2°52.957 18.6594 0.009587 0.054272 -1.766697
2008-05-23 07:06:24 51°16.666 2°52.942 18.6505 0.00969 0.054801 -1.731873
2008-05-23 07:06:29 51°16.68 2°52.927 18.6703 0.009587 0.054272 -1.731873
2008-05-23 07:06:34 51°16.695 2°52.912 18.6736 0.009587 0.054272 -1.731873
2008-05-23 07:06:39 51°16.709 2°52.898 18.6638 0.009587 0.054272 -1.731873
2008-05-23 07:06:44 51°16.724 2°52.883 18.6664 0.009587 0.054272 -1.766697
2008-05-23 07:06:49 51°16.738 2°52.868 18.6749 0.009587 0.054272 -1.766697
2008-05-23 07:06:54 51°16.753 2°52.853 18.6719 0.009587 0.054272 -1.731873
2008-05-23 07:06:59 51°16.767 2°52.838 18.6802 0.009587 0.054272 -1.731873
2008-05-23 07:07:04 51°16.782 2°52.824 18.6862 0.009587 0.054272 -1.731873
2008-05-23 07:07:09 51°16.796 2°52.809 18.645 0.009587 0.054272 -1.766697
2008-05-23 07:07:13 51°16.808 2°52.797 18.6597 0.009587 0.054272 -1.766697
2008-05-23 07:07:19 51°16.825 2°52.78 18.6798 0.009587 0.054272 -1.766697
2008-05-23 07:07:24 51°16.839 2°52.765 18.6665 0.009587 0.054273 -1.731873
2008-05-23 07:07:29 51°16.854 2°52.75 18.6525 0.009587 0.054273 -1.731873
2008-05-23 07:07:34 51°16.868 2°52.735 18.661 0.009587 0.054273 -1.766697
2008-05-23 07:07:38 51°16.88 2°52.724 18.6748 0.009587 0.054273 -1.731873
2008-05-23 07:07:44 51°16.897 2°52.706 18.6572 0.009587 0.054274 -1.731873
2008-05-23 07:07:49 51°16.911 2°52.691 18.6699 0.009587 0.054274 -1.731873
2008-05-23 07:07:54 51°16.926 2°52.677 18.6687 0.009587 0.054273 -1.731873
2008-05-23 07:07:59 51°16.941 2°52.662 18.6529 0.009587 0.054274 -1.766697
2008-05-23 07:08:04 51°16.955 2°52.647 18.6765 0.009587 0.054274 -1.731873
2008-05-23 07:08:09 51°16.969 2°52.632 18.6762 0.009587 0.054274 -1.731873
2008-05-23 07:08:14 51°16.984 2°52.618 18.6506 0.009587 0.054274 -1.766697
2008-05-23 07:08:19 51°16.998 2°52.602 18.6529 0.009587 0.054274 -1.766697
2008-05-23 07:08:24 51°17.013 2°52.588 18.6715 0.009587 0.054274 -1.731873
2008-05-23 07:08:29 51°17.027 2°52.573 18.6374 0.009587 0.054274 -1.766697
2008-05-23 07:08:34 51°17.042 2°52.559 18.6196 0.009587 0.054274 -1.731873
2008-05-23 07:08:39 51°17.057 2°52.545 18.6586 0.00969 0.054803 -1.731873
2008-05-23 07:08:44 51°17.072 2°52.535 18.6422 0.009587 0.054274 -1.766697
2008-05-23 07:08:49 51°17.087 2°52.524 18.641 0.009587 0.054274 -1.766697
2008-05-23 07:08:54 51°17.103 2°52.514 18.6441 0.009587 0.054274 -1.731873
2008-05-23 07:08:59 51°17.119 2°52.505 18.6583 0.009587 0.054274 -1.766697
2008-05-23 07:09:04 51°17.135 2°52.497 18.6435 0.009587 0.054274 -1.766697
2008-05-23 07:09:09 51°17.151 2°52.49 18.6559 0.009587 0.054274 -1.731873
2008-05-23 07:09:13 51°17.164 2°52.485 18.6748 0.009587 0.054274 -1.766697
2008-05-23 07:09:19 51°17.184 2°52.477 18.676 0.009587 0.054274 -1.766697
2008-05-23 07:09:24 51°17.201 2°52.471 18.6909 0.009587 0.054275 -1.731873
2008-05-23 07:09:29 51°17.217 2°52.466 18.6753 0.00969 0.054803 -1.731873
2008-05-23 07:09:34 51°17.234 2°52.46 18.6678 0.009587 0.054275 -1.731873
2008-05-23 07:09:39 51°17.25 2°52.454 18.6596 0.009587 0.054276 -1.766697
2008-05-23 07:09:44 51°17.267 2°52.449 18.6841 0.009587 0.054275 -1.731873
2008-05-23 07:09:49 51°17.283 2°52.445 18.6781 0.009587 0.054275 -1.731873
2008-05-23 07:09:53 51°17.296 2°52.44 18.6859 0.009587 0.054276 -1.766697
2008-05-23 07:09:59 51°17.316 2°52.434 18.6852 0.009587 0.054276 -1.766697
2008-05-23 07:10:04 51°17.333 2°52.428 18.6833 0.009587 0.054276 -1.766697
2008-05-23 07:10:09 51°17.349 2°52.423 18.6659 0.009587 0.054276 -1.731873
2008-05-23 07:10:14 51°17.366 2°52.417 18.686 0.009587 0.054276 -1.766697
2008-05-23 07:10:19 51°17.382 2°52.411 18.6862 0.009587 0.054276 -1.766697
2008-05-23 07:10:24 51°17.399 2°52.405 18.6797 0.009587 0.054277 -1.731873
2008-05-23 07:10:29 51°17.415 2°52.4 18.6702 0.009587 0.054277 -1.766697
2008-05-23 07:10:34 51°17.432 2°52.394 18.6717 0.009587 0.054278 -1.731873
2008-05-23 07:10:39 51°17.448 2°52.39 18.6669 0.009587 0.054277 -1.766697
2008-05-23 07:10:44 51°17.465 2°52.386 18.6841 0.009587 0.054277 -1.766697
2008-05-23 07:10:49 51°17.481 2°52.382 18.6915 0.009587 0.054277 -1.766697
2008-05-23 07:10:54 51°17.498 2°52.378 18.6856 0.009587 0.054278 -1.731873
2008-05-23 07:10:59 51°17.515 2°52.375 18.6922 0.009587 0.054278 -1.731873
2008-05-23 07:11:04 51°17.531 2°52.371 18.6715 0.009587 0.054278 -1.731873
2008-05-23 07:11:09 51°17.548 2°52.368 18.6866 0.009587 0.054278 -1.766697
2008-05-23 07:11:14 51°17.564 2°52.364 18.6862 0.009587 0.054278 -1.766697
2008-05-23 07:11:19 51°17.581 2°52.361 18.681 0.009587 0.054278 -1.766697
2008-05-23 07:11:24 51°17.598 2°52.356 18.6927 0.009587 0.054278 -1.731873
2008-05-23 07:11:29 51°17.615 2°52.353 18.6963 0.009587 0.054278 -1.766697
2008-05-23 07:11:34 51°17.631 2°52.349 18.6926 0.009587 0.054278 -1.766697
2008-05-23 07:11:39 51°17.648 2°52.345 18.6742 0.009587 0.054278 -1.731873
2008-05-23 07:11:44 51°17.665 2°52.342 18.6595 0.009587 0.054278 -1.731873
2008-05-23 07:11:49 51°17.681 2°52.338 18.6719 0.009587 0.054278 -1.731873
2008-05-23 07:11:53 51°17.694 2°52.336 18.6883 0.009587 0.054278 -1.731873
2008-05-23 07:11:59 51°17.714 2°52.334 18.6967 0.009587 0.054278 -1.731873
2008-05-23 07:12:04 51°17.731 2°52.332 18.6901 0.009587 0.054278 -1.731873
2008-05-23 07:12:09 51°17.747 2°52.33 18.6854 0.009587 0.054278 -1.731873
2008-05-23 07:12:14 51°17.764 2°52.328 18.6812 0.009587 0.054278 -1.731873
2008-05-23 07:12:19 51°17.781 2°52.326 18.6982 0.009587 0.054278 -1.731873
2008-05-23 07:12:24 51°17.797 2°52.324 18.6948 0.009587 0.054278 -1.731873
2008-05-23 07:12:29 51°17.814 2°52.322 18.6898 0.009587 0.054279 -1.731873
2008-05-23 07:12:34 51°17.83 2°52.32 18.688 0.009587 0.054279 -1.766697
2008-05-23 07:12:39 51°17.847 2°52.318 18.6942 0.009587 0.054279 -1.766697
2008-05-23 07:12:44 51°17.864 2°52.315 18.7144 0.009587 0.054279 -1.766697
2008-05-23 07:12:49 51°17.88 2°52.313 18.7113 0.009587 0.054279 -1.766697
2008-05-23 07:12:54 51°17.897 2°52.311 18.7089 0.009587 0.054279 -1.766697
2008-05-23 07:12:59 51°17.913 2°52.308 18.7124 0.009587 0.05428 -1.731873
2008-05-23 07:13:04 51°17.93 2°52.305 18.7108 0.009587 0.05428 -1.731873
2008-05-23 07:13:09 51°17.946 2°52.302 18.7 0.009587 0.05428 -1.731873
2008-05-23 07:13:14 51°17.963 2°52.299 18.7028 0.009587 0.05428 -1.731873
2008-05-23 07:13:19 51°17.98 2°52.295 18.7153 0.009587 0.05428 -1.731873
2008-05-23 07:13:24 51°17.996 2°52.29 18.7146 0.009587 0.05428 -1.731873
2008-05-23 07:13:29 51°18.013 2°52.285 18.6933 0.009587 0.05428 -1.731873
2008-05-23 07:13:34 51°18.029 2°52.28 18.7041 0.009587 0.05428 -1.766697
2008-05-23 07:13:39 51°18.045 2°52.275 18.6935 0.009587 0.05428 -1.731873
2008-05-23 07:13:44 51°18.062 2°52.271 18.7089 0.009587 0.05428 -1.766697
2008-05-23 07:13:49 51°18.078 2°52.265 18.7035 0.009587 0.05428 -1.766697
2008-05-23 07:13:53 51°18.092 2°52.261 18.7104 0.009587 0.054281 -1.731873
2008-05-23 07:13:59 51°18.111 2°52.255 18.7064 0.009587 0.054281 -1.766697
2008-05-23 07:14:04 51°18.128 2°52.25 18.7094 0.009587 0.054281 -1.766697
2008-05-23 07:14:09 51°18.144 2°52.245 18.7194 0.009587 0.054281 -1.731873
2008-05-23 07:14:14 51°18.161 2°52.24 18.6911 0.009587 0.054281 -1.766697
2008-05-23 07:14:19 51°18.177 2°52.235 18.6977 0.009587 0.054281 -1.766697
2008-05-23 07:14:24 51°18.194 2°52.23 18.7039 0.009587 0.054282 -1.731873
2008-05-23 07:14:29 51°18.21 2°52.225 18.7112 0.009587 0.054282 -1.731873
2008-05-23 07:14:34 51°18.227 2°52.22 18.7048 0.009587 0.054282 -1.731873
2008-05-23 07:14:39 51°18.243 2°52.215 18.7089 0.009587 0.054282 -1.766697
2008-05-23 07:14:44 51°18.26 2°52.211 18.7075 0.009587 0.054282 -1.731873
2008-05-23 07:14:49 51°18.276 2°52.206 18.7103 0.009587 0.054282 -1.731873
2008-05-23 07:14:54 51°18.293 2°52.201 18.7108 0.009587 0.054282 -1.731873
2008-05-23 07:14:59 51°18.309 2°52.196 18.7184 0.009587 0.054282 -1.766697
2008-05-23 07:15:04 51°18.326 2°52.191 18.72 0.009587 0.054282 -1.731873
2008-05-23 07:15:09 51°18.342 2°52.187 18.7209 0.009587 0.054282 -1.766697
2008-05-23 07:15:14 51°18.359 2°52.182 18.716 0.009587 0.054282 -1.731873
2008-05-23 07:15:19 51°18.375 2°52.177 18.7221 0.009587 0.054282 -1.731873
2008-05-23 07:15:24 51°18.392 2°52.172 18.7111 0.009587 0.054282 -1.731873
2008-05-23 07:15:29 51°18.408 2°52.167 18.7244 0.009587 0.054282 -1.731873
2008-05-23 07:15:34 51°18.425 2°52.163 18.7161 0.009587 0.054283 -1.731873
2008-05-23 07:15:39 51°18.441 2°52.158 18.7199 0.009587 0.054283 -1.766697
2008-05-23 07:15:44 51°18.458 2°52.153 18.7172 0.009587 0.054283 -1.731873
2008-05-23 07:15:49 51°18.474 2°52.148 18.7215 0.009587 0.054283 -1.731873
2008-05-23 07:15:54 51°18.491 2°52.143 18.7159 0.009587 0.054283 -1.766697
2008-05-23 07:15:59 51°18.507 2°52.138 18.7072 0.009587 0.054283 -1.766697
2008-05-23 07:16:04 51°18.524 2°52.133 18.7303 0.009587 0.054283 -1.731873
2008-05-23 07:16:09 51°18.54 2°52.128 18.7287 0.009587 0.054284 -1.766697
2008-05-23 07:16:14 51°18.557 2°52.123 18.7183 0.009587 0.054284 -1.766697
2008-05-23 07:16:19 51°18.573 2°52.118 18.7154 0.009587 0.054284 -1.766697
2008-05-23 07:16:24 51°18.59 2°52.113 18.7286 0.009587 0.054284 -1.731873
2008-05-23 07:16:29 51°18.606 2°52.108 18.7234 0.009587 0.054284 -1.731873
2008-05-23 07:16:33 51°18.619 2°52.104 18.7164 0.009587 0.054284 -1.731873
2008-05-23 07:16:39 51°18.639 2°52.098 18.7393 0.009587 0.054284 -1.766697
2008-05-23 07:16:44 51°18.656 2°52.093 18.7337 0.009587 0.054284 -1.731873
2008-05-23 07:16:49 51°18.672 2°52.088 18.738 0.009587 0.054284 -1.731873
2008-05-23 07:16:54 51°18.689 2°52.083 18.7303 0.009587 0.054284 -1.731873
2008-05-23 07:16:59 51°18.705 2°52.078 18.7144 0.009587 0.054284 -1.731873
2008-05-23 07:17:04 51°18.722 2°52.073 18.7368 0.009587 0.054285 -1.766697
2008-05-23 07:17:09 51°18.738 2°52.068 18.7297 0.009587 0.054285 -1.731873
2008-05-23 07:17:14 51°18.755 2°52.063 18.7346 0.009587 0.054285 -1.731873
2008-05-23 07:17:19 51°18.771 2°52.058 18.7262 0.009587 0.054285 -1.731873
2008-05-23 07:17:24 51°18.788 2°52.053 18.7115 0.009587 0.054285 -1.766697
2008-05-23 07:17:29 51°18.805 2°52.047 18.7209 0.009587 0.054285 -1.731873
2008-05-23 07:17:34 51°18.821 2°52.043 18.7248 0.009587 0.054285 -1.731873
2008-05-23 07:17:39 51°18.838 2°52.038 18.718 0.009587 0.054285 -1.731873
2008-05-23 07:17:44 51°18.855 2°52.033 18.7336 0.009587 0.054285 -1.731873
2008-05-23 07:17:49 51°18.871 2°52.029 18.7428 0.009587 0.054285 -1.731873
2008-05-23 07:17:54 51°18.888 2°52.024 18.7316 0.009587 0.054286 -1.731873
2008-05-23 07:17:59 51°18.905 2°52.019 18.7217 0.009587 0.054286 -1.766697
2008-05-23 07:18:04 51°18.921 2°52.014 18.7354 0.009587 0.054286 -1.731873
2008-05-23 07:18:09 51°18.938 2°52.01 18.7382 0.009587 0.054286 -1.766697
2008-05-23 07:18:14 51°18.954 2°52.005 18.7266 0.009587 0.054286 -1.766697
2008-05-23 07:18:19 51°18.971 2°52 18.7226 0.009587 0.054286 -1.766697
2008-05-23 07:18:24 51°18.987 2°51.995 18.7197 0.009587 0.054286 -1.731873
2008-05-23 07:18:29 51°19.004 2°51.99 18.7465 0.009587 0.054286 -1.731873
2008-05-23 07:18:33 51°19.018 2°51.987 18.7355 0.009587 0.054286 -1.766697
2008-05-23 07:18:39 51°19.038 2°51.981 18.7443 0.009587 0.054287 -1.731873
2008-05-23 07:18:44 51°19.054 2°51.976 18.7372 0.009587 0.054287 -1.731873
2008-05-23 07:18:49 51°19.071 2°51.971 18.7308 0.009587 0.054287 -1.731873
2008-05-23 07:18:54 51°19.088 2°51.966 18.7394 0.009587 0.054287 -1.731873
2008-05-23 07:18:59 51°19.104 2°51.962 18.7195 0.009587 0.054287 -1.731873
2008-05-23 07:19:04 51°19.121 2°51.958 18.7435 0.009587 0.054287 -1.731873
2008-05-23 07:19:09 51°19.138 2°51.954 18.7567 0.009587 0.054287 -1.731873
2008-05-23 07:19:14 51°19.155 2°51.95 18.7319 0.009587 0.054287 -1.731873
2008-05-23 07:19:19 51°19.171 2°51.945 18.722 0.009587 0.054287 -1.731873
2008-05-23 07:19:24 51°19.188 2°51.941 18.7478 0.009587 0.054288 -1.731873
2008-05-23 07:19:29 51°19.205 2°51.937 18.7452 0.009587 0.054288 -1.731873
2008-05-23 07:19:34 51°19.221 2°51.933 18.7449 0.009587 0.054288 -1.731873
2008-05-23 07:19:39 51°19.238 2°51.929 18.7421 0.009587 0.054288 -1.731873
2008-05-23 07:19:44 51°19.255 2°51.924 18.7428 0.009587 0.054288 -1.731873
2008-05-23 07:19:49 51°19.272 2°51.92 18.7522 0.009587 0.054288 -1.731873
2008-05-23 07:19:54 51°19.289 2°51.916 18.7573 0.009587 0.054288 -1.766697
2008-05-23 07:19:59 51°19.305 2°51.912 18.7519 0.009587 0.054288 -1.731873
2008-05-23 07:20:04 51°19.322 2°51.908 18.7512 0.009587 0.054288 -1.766697
2008-05-23 07:20:09 51°19.339 2°51.904 18.7506 0.009587 0.054288 -1.731873
2008-05-23 07:20:14 51°19.356 2°51.9 18.7541 0.009587 0.054289 -1.766697
2008-05-23 07:20:19 51°19.373 2°51.896 18.7572 0.009587 0.054289 -1.766697
2008-05-23 07:20:24 51°19.389 2°51.892 18.7403 0.009587 0.054288 -1.731873
2008-05-23 07:20:29 51°19.406 2°51.888 18.7433 0.009587 0.054289 -1.766697
2008-05-23 07:20:34 51°19.423 2°51.884 18.7552 0.009587 0.054289 -1.766697
2008-05-23 07:20:39 51°19.44 2°51.879 18.7455 0.009587 0.054289 -1.766697
2008-05-23 07:20:44 51°19.457 2°51.876 18.7618 0.009587 0.054289 -1.731873
2008-05-23 07:20:49 51°19.473 2°51.872 18.7576 0.009587 0.054289 -1.731873
2008-05-23 07:20:54 51°19.49 2°51.868 18.7424 0.009587 0.05429 -1.731873
2008-05-23 07:20:59 51°19.507 2°51.864 18.7617 0.009587 0.05429 -1.766697
2008-05-23 07:21:04 51°19.524 2°51.861 18.7617 0.009587 0.05429 -1.766697
2008-05-23 07:21:09 51°19.541 2°51.858 18.7527 0.009587 0.05429 -1.731873
2008-05-23 07:21:14 51°19.558 2°51.855 18.7529 0.009587 0.05429 -1.731873
2008-05-23 07:21:19 51°19.575 2°51.852 18.7577 0.009587 0.05429 -1.731873
2008-05-23 07:21:24 51°19.591 2°51.848 18.7637 0.009587 0.05429 -1.766697
2008-05-23 07:21:29 51°19.608 2°51.844 18.7552 0.009587 0.05429 -1.766697
2008-05-23 07:21:34 51°19.625 2°51.84 18.7662 0.009587 0.05429 -1.731873
2008-05-23 07:21:39 51°19.641 2°51.836 18.7539 0.009587 0.05429 -1.731873
2008-05-23 07:21:44 51°19.658 2°51.831 18.7602 0.009587 0.05429 -1.731873
2008-05-23 07:21:49 51°19.674 2°51.827 18.7512 0.009587 0.05429 -1.731873
2008-05-23 07:21:54 51°19.691 2°51.822 18.7443 0.009587 0.05429 -1.731873
2008-05-23 07:21:59 51°19.707 2°51.818 18.7668 0.009587 0.05429 -1.731873
2008-05-23 07:22:04 51°19.724 2°51.813 18.7476 0.009587 0.054291 -1.731873
2008-05-23 07:22:09 51°19.741 2°51.808 18.7516 0.009587 0.054291 -1.731873
2008-05-23 07:22:14 51°19.757 2°51.804 18.7618 0.009587 0.054291 -1.731873
2008-05-23 07:22:19 51°19.774 2°51.801 18.738 0.009587 0.054291 -1.731873
2008-05-23 07:22:24 51°19.791 2°51.796 18.7733 0.009587 0.054291 -1.766697
2008-05-23 07:22:29 51°19.807 2°51.794 18.751 0.009587 0.054291 -1.766697
2008-05-23 07:22:34 51°19.824 2°51.79 18.7636 0.009587 0.054292 -1.766697
2008-05-23 07:22:39 51°19.84 2°51.787 18.7497 0.009587 0.054292 -1.731873
2008-05-23 07:22:44 51°19.857 2°51.783 18.76 0.009587 0.054292 -1.766697
2008-05-23 07:22:49 51°19.874 2°51.78 18.7659 0.009587 0.054292 -1.766697
2008-05-23 07:22:54 51°19.89 2°51.777 18.7676 0.009587 0.054292 -1.731873
2008-05-23 07:22:59 51°19.907 2°51.774 18.7713 0.009587 0.054292 -1.766697
2008-05-23 07:23:04 51°19.924 2°51.771 18.7697 0.009587 0.054292 -1.731873
2008-05-23 07:23:09 51°19.94 2°51.768 18.7688 0.009587 0.054292 -1.731873
2008-05-23 07:23:13 51°19.954 2°51.765 18.7826 0.009587 0.054292 -1.731873
2008-05-23 07:23:19 51°19.974 2°51.761 18.7698 0.009587 0.054292 -1.731873
2008-05-23 07:23:24 51°19.991 2°51.758 18.7624 0.009587 0.054292 -1.731873
2008-05-23 07:23:29 51°20.007 2°51.754 18.7612 0.009587 0.054293 -1.731873
2008-05-23 07:23:34 51°20.024 2°51.751 18.7776 0.009587 0.054293 -1.766697
2008-05-23 07:23:39 51°20.041 2°51.748 18.7614 0.009587 0.054293 -1.731873
2008-05-23 07:23:44 51°20.058 2°51.746 18.7704 0.009587 0.054293 -1.766697
2008-05-23 07:23:49 51°20.074 2°51.743 18.7737 0.009587 0.054293 -1.766697
2008-05-23 07:23:54 51°20.091 2°51.741 18.7768 0.009587 0.054293 -1.731873
2008-05-23 07:23:59 51°20.108 2°51.74 18.7754 0.009587 0.054293 -1.731873
2008-05-23 07:24:04 51°20.124 2°51.738 18.7893 0.009587 0.054293 -1.731873
2008-05-23 07:24:09 51°20.141 2°51.737 18.7932 0.009587 0.054294 -1.766697
2008-05-23 07:24:14 51°20.158 2°51.735 18.7935 0.009587 0.054294 -1.731873
2008-05-23 07:24:19 51°20.175 2°51.733 18.7934 0.009587 0.054294 -1.731873
2008-05-23 07:24:24 51°20.192 2°51.731 18.7938 0.009587 0.054294 -1.731873
2008-05-23 07:24:29 51°20.209 2°51.729 18.7693 0.009587 0.054294 -1.731873
2008-05-23 07:24:34 51°20.226 2°51.726 18.7946 0.009587 0.054294 -1.731873
2008-05-23 07:24:39 51°20.242 2°51.723 18.792 0.009587 0.054294 -1.731873
2008-05-23 07:24:44 51°20.259 2°51.72 18.7888 0.009587 0.054295 -1.731873
2008-05-23 07:24:49 51°20.276 2°51.717 18.7893 0.009587 0.054295 -1.731873
2008-05-23 07:24:54 51°20.293 2°51.714 18.7754 0.009587 0.054295 -1.731873
2008-05-23 07:24:59 51°20.31 2°51.71 18.7895 0.009587 0.054295 -1.731873
2008-05-23 07:25:04 51°20.327 2°51.707 18.782 0.009587 0.054295 -1.731873
2008-05-23 07:25:09 51°20.344 2°51.703 18.7959 0.009587 0.054295 -1.766697
2008-05-23 07:25:14 51°20.361 2°51.7 18.7924 0.009587 0.054295 -1.766697
2008-05-23 07:25:19 51°20.377 2°51.697 18.7939 0.009587 0.054295 -1.766697
2008-05-23 07:25:24 51°20.394 2°51.693 18.7954 0.009587 0.054295 -1.731873
2008-05-23 07:25:29 51°20.411 2°51.69 18.7987 0.009587 0.054296 -1.731873
2008-05-23 07:25:34 51°20.428 2°51.686 18.7939 0.009587 0.054296 -1.731873
2008-05-23 07:25:39 51°20.445 2°51.682 18.7767 0.009587 0.054296 -1.731873
2008-05-23 07:25:44 51°20.462 2°51.679 18.7928 0.009587 0.054296 -1.731873
2008-05-23 07:25:49 51°20.479 2°51.675 18.8028 0.009587 0.054296 -1.731873
2008-05-23 07:25:54 51°20.496 2°51.672 18.7783 0.009587 0.054296 -1.731873
2008-05-23 07:25:59 51°20.513 2°51.669 18.7878 0.009587 0.054296 -1.731873
2008-05-23 07:26:04 51°20.53 2°51.665 18.7998 0.009587 0.054296 -1.731873
2008-05-23 07:26:09 51°20.547 2°51.662 18.8 0.009587 0.054296 -1.731873
2008-05-23 07:26:14 51°20.564 2°51.659 18.7941 0.009587 0.054296 -1.731873
2008-05-23 07:26:19 51°20.581 2°51.655 18.8062 0.009587 0.054296 -1.731873
2008-05-23 07:26:24 51°20.598 2°51.651 18.8043 0.009587 0.054296 -1.731873
2008-05-23 07:26:29 51°20.616 2°51.647 18.7969 0.009587 0.054297 -1.731873
2008-05-23 07:26:34 51°20.633 2°51.643 18.7961 0.009587 0.054296 -1.731873
2008-05-23 07:26:39 51°20.65 2°51.639 18.8076 0.009587 0.054297 -1.766697
2008-05-23 07:26:44 51°20.667 2°51.635 18.8076 0.009587 0.054297 -1.766697
2008-05-23 07:26:49 51°20.684 2°51.631 18.8104 0.009587 0.054297 -1.766697
2008-05-23 07:26:54 51°20.701 2°51.627 18.8119 0.009587 0.054298 -1.731873
2008-05-23 07:26:59 51°20.718 2°51.623 18.8181 0.009587 0.054297 -1.731873
2008-05-23 07:27:04 51°20.735 2°51.618 18.7938 0.009587 0.054298 -1.731873
2008-05-23 07:27:09 51°20.752 2°51.613 18.8111 0.009587 0.054298 -1.766697
2008-05-23 07:27:14 51°20.769 2°51.608 18.809 0.009587 0.054298 -1.731873
2008-05-23 07:27:19 51°20.786 2°51.603 18.817 0.009587 0.054298 -1.731873
2008-05-23 07:27:24 51°20.803 2°51.597 18.8031 0.009587 0.054298 -1.766697
2008-05-23 07:27:29 51°20.82 2°51.591 18.8144 0.009587 0.054299 -1.731873
2008-05-23 07:27:34 51°20.837 2°51.586 18.8054 0.009587 0.054299 -1.766697
2008-05-23 07:27:39 51°20.854 2°51.581 18.8172 0.009587 0.054299 -1.766697
2008-05-23 07:27:44 51°20.871 2°51.576 18.8073 0.009587 0.054299 -1.766697
2008-05-23 07:27:49 51°20.888 2°51.571 18.8088 0.009587 0.054299 -1.766697
2008-05-23 07:27:53 51°20.902 2°51.567 18.8175 0.009587 0.054299 -1.766697
2008-05-23 07:27:59 51°20.922 2°51.562 18.8152 0.009587 0.054299 -1.731873
2008-05-23 07:28:04 51°20.939 2°51.558 18.8101 0.009587 0.054299 -1.731873
2008-05-23 07:28:09 51°20.956 2°51.554 18.814 0.009587 0.054299 -1.766697
2008-05-23 07:28:14 51°20.974 2°51.55 18.8165 0.009587 0.054299 -1.731873
2008-05-23 07:28:19 51°20.991 2°51.546 18.8078 0.009587 0.054299 -1.731873
2008-05-23 07:28:24 51°21.008 2°51.543 18.8195 0.009587 0.054299 -1.731873
2008-05-23 07:28:29 51°21.025 2°51.539 18.8072 0.009587 0.054299 -1.731873
2008-05-23 07:28:34 51°21.042 2°51.536 18.8114 0.009587 0.054299 -1.731873
2008-05-23 07:28:39 51°21.059 2°51.533 18.8251 0.009587 0.054299 -1.731873
2008-05-23 07:28:44 51°21.076 2°51.53 18.8206 0.009587 0.054299 -1.731873
2008-05-23 07:28:49 51°21.093 2°51.526 18.8252 0.009587 0.054299 -1.731873
2008-05-23 07:28:54 51°21.111 2°51.523 18.8237 0.009587 0.0543 -1.766697
2008-05-23 07:28:59 51°21.128 2°51.52 18.8234 0.009587 0.0543 -1.731873
2008-05-23 07:29:04 51°21.145 2°51.517 18.8159 0.009587 0.0543 -1.766697
2008-05-23 07:29:09 51°21.162 2°51.514 18.8267 0.009587 0.0543 -1.731873
2008-05-23 07:29:14 51°21.18 2°51.512 18.8298 0.009587 0.0543 -1.766697
2008-05-23 07:29:19 51°21.197 2°51.509 18.8231 0.009587 0.0543 -1.766697
2008-05-23 07:29:24 51°21.214 2°51.507 18.8368 0.009587 0.0543 -1.766697
2008-05-23 07:29:29 51°21.231 2°51.504 18.8289 0.009587 0.0543 -1.731873
2008-05-23 07:29:34 51°21.248 2°51.501 18.8244 0.009587 0.0543 -1.731873
2008-05-23 07:29:39 51°21.265 2°51.497 18.8092 0.009587 0.054301 -1.766697
2008-05-23 07:29:44 51°21.283 2°51.494 18.8269 0.009587 0.054301 -1.766697
2008-05-23 07:29:49 51°21.3 2°51.491 18.8315 0.009587 0.054301 -1.766697
2008-05-23 07:29:53 51°21.313 2°51.489 18.818 0.009587 0.054301 -1.731873
2008-05-23 07:29:59 51°21.334 2°51.486 18.8267 0.009587 0.054301 -1.731873
2008-05-23 07:30:04 51°21.351 2°51.484 18.841 0.009587 0.054301 -1.731873
2008-05-23 07:30:09 51°21.368 2°51.481 18.8275 0.009587 0.054301 -1.731873
2008-05-23 07:30:14 51°21.385 2°51.479 18.8339 0.009587 0.054301 -1.731873
2008-05-23 07:30:19 51°21.402 2°51.476 18.832 0.009587 0.054301 -1.731873
2008-05-23 07:30:24 51°21.419 2°51.473 18.837 0.009587 0.054301 -1.731873
2008-05-23 07:30:29 51°21.436 2°51.47 18.8331 0.009587 0.054301 -1.731873
2008-05-23 07:30:34 51°21.453 2°51.468 18.8337 0.009587 0.054301 -1.731873
2008-05-23 07:30:39 51°21.469 2°51.465 18.8413 0.009587 0.054301 -1.731873
2008-05-23 07:30:44 51°21.486 2°51.463 18.831 0.009587 0.054301 -1.731873
2008-05-23 07:30:49 51°21.503 2°51.46 18.819 0.009587 0.054301 -1.731873
2008-05-23 07:30:54 51°21.519 2°51.458 18.8133 0.009587 0.054302 -1.766697
2008-05-23 07:30:59 51°21.536 2°51.455 18.8302 0.009587 0.054302 -1.731873
2008-05-23 07:31:04 51°21.553 2°51.453 18.8413 0.009587 0.054301 -1.731873
2008-05-23 07:31:09 51°21.569 2°51.452 18.8354 0.009587 0.054302 -1.731873
2008-05-23 07:31:14 51°21.586 2°51.451 18.8332 0.009587 0.054302 -1.731873
2008-05-23 07:31:19 51°21.603 2°51.45 18.8344 0.009587 0.054302 -1.731873
2008-05-23 07:31:24 51°21.619 2°51.449 18.8458 0.009587 0.054302 -1.766697
2008-05-23 07:31:29 51°21.636 2°51.448 18.8437 0.009587 0.054302 -1.731873
2008-05-23 07:31:34 51°21.652 2°51.447 18.8528 0.009587 0.054302 -1.766697
2008-05-23 07:31:39 51°21.669 2°51.445 18.8508 0.009587 0.054303 -1.731873
2008-05-23 07:31:44 51°21.685 2°51.443 18.849 0.009587 0.054303 -1.766697
2008-05-23 07:31:49 51°21.702 2°51.441 18.8401 0.009587 0.054303 -1.766697
2008-05-23 07:31:54 51°21.719 2°51.439 18.8554 0.009587 0.054303 -1.731873
2008-05-23 07:31:59 51°21.735 2°51.436 18.8374 0.009587 0.054303 -1.766697
2008-05-23 07:32:04 51°21.752 2°51.434 18.8428 0.009587 0.054303 -1.731873
2008-05-23 07:32:09 51°21.769 2°51.431 18.8535 0.009587 0.054303 -1.766697
2008-05-23 07:32:14 51°21.785 2°51.428 18.8499 0.009587 0.054303 -1.766697
2008-05-23 07:32:19 51°21.802 2°51.425 18.849 0.009587 0.054303 -1.766697
2008-05-23 07:32:24 51°21.819 2°51.422 18.854 0.009587 0.054303 -1.766697
2008-05-23 07:32:29 51°21.835 2°51.419 18.8494 0.009587 0.054303 -1.731873
2008-05-23 07:32:34 51°21.852 2°51.417 18.8622 0.009587 0.054303 -1.731873
2008-05-23 07:32:39 51°21.869 2°51.414 18.8683 0.009587 0.054303 -1.766697
2008-05-23 07:32:44 51°21.885 2°51.411 18.8549 0.009587 0.054303 -1.731873
2008-05-23 07:32:49 51°21.902 2°51.408 18.8679 0.009587 0.054303 -1.731873
2008-05-23 07:32:54 51°21.919 2°51.404 18.8416 0.009587 0.054303 -1.731873
2008-05-23 07:32:59 51°21.935 2°51.4 18.8483 0.009587 0.054304 -1.731873
2008-05-23 07:33:04 51°21.952 2°51.396 18.8512 0.009587 0.054304 -1.766697
2008-05-23 07:33:09 51°21.969 2°51.391 18.8575 0.009587 0.054304 -1.731873
2008-05-23 07:33:14 51°21.985 2°51.386 18.8546 0.009587 0.054304 -1.731873
2008-05-23 07:33:19 51°22.002 2°51.381 18.8479 0.009587 0.054304 -1.731873
2008-05-23 07:33:24 51°22.018 2°51.376 18.863 0.009587 0.054304 -1.766697
2008-05-23 07:33:29 51°22.035 2°51.371 18.855 0.009587 0.054304 -1.766697
2008-05-23 07:33:34 51°22.051 2°51.366 18.8625 0.009587 0.054305 -1.731873
2008-05-23 07:33:39 51°22.068 2°51.361 18.8624 0.009587 0.054304 -1.766697
2008-05-23 07:33:44 51°22.084 2°51.356 18.8716 0.009587 0.054305 -1.731873
2008-05-23 07:33:49 51°22.101 2°51.351 18.8687 0.009587 0.054305 -1.731873
2008-05-23 07:33:54 51°22.117 2°51.345 18.8572 0.009587 0.054305 -1.731873
2008-05-23 07:33:59 51°22.134 2°51.341 18.868 0.009587 0.054305 -1.766697
2008-05-23 07:34:04 51°22.15 2°51.336 18.8698 0.009587 0.054305 -1.731873
2008-05-23 07:34:09 51°22.167 2°51.333 18.8727 0.009587 0.054305 -1.731873
2008-05-23 07:34:14 51°22.184 2°51.329 18.8707 0.009587 0.054305 -1.766697
2008-05-23 07:34:19 51°22.2 2°51.325 18.873 0.009587 0.054305 -1.766697
2008-05-23 07:34:24 51°22.217 2°51.322 18.8729 0.009587 0.054305 -1.766697
2008-05-23 07:34:29 51°22.234 2°51.318 18.8779 0.009587 0.054305 -1.731873
2008-05-23 07:34:33 51°22.247 2°51.316 18.8639 0.009587 0.054305 -1.731873
2008-05-23 07:34:39 51°22.267 2°51.312 18.8681 0.009587 0.054305 -1.731873
2008-05-23 07:34:44 51°22.284 2°51.308 18.8733 0.009587 0.054305 -1.766697
2008-05-23 07:34:49 51°22.301 2°51.305 18.8747 0.009587 0.054305 -1.766697
2008-05-23 07:34:54 51°22.318 2°51.301 18.8624 0.009587 0.054305 -1.766697
2008-05-23 07:34:59 51°22.335 2°51.298 18.8803 0.009587 0.054305 -1.731873
2008-05-23 07:35:04 51°22.351 2°51.294 18.8821 0.009587 0.054305 -1.731873
2008-05-23 07:35:09 51°22.368 2°51.291 18.8753 0.009587 0.054305 -1.766697
2008-05-23 07:35:14 51°22.385 2°51.287 18.8753 0.009587 0.054305 -1.731873
2008-05-23 07:35:19 51°22.402 2°51.284 18.8802 0.009587 0.054305 -1.731873
2008-05-23 07:35:24 51°22.419 2°51.281 18.8751 0.009587 0.054306 -1.766697
2008-05-23 07:35:29 51°22.436 2°51.277 18.8845 0.009587 0.054305 -1.731873
2008-05-23 07:35:34 51°22.453 2°51.274 18.8813 0.009587 0.054306 -1.766697
2008-05-23 07:35:39 51°22.47 2°51.27 18.8875 0.009587 0.054306 -1.731873
2008-05-23 07:35:44 51°22.487 2°51.266 18.8736 0.009587 0.054306 -1.731873
2008-05-23 07:35:49 51°22.504 2°51.263 18.8773 0.009587 0.054306 -1.731873
2008-05-23 07:35:54 51°22.521 2°51.259 18.8898 0.009587 0.054306 -1.731873
2008-05-23 07:35:59 51°22.538 2°51.254 18.8747 0.009587 0.054306 -1.731873
2008-05-23 07:36:04 51°22.555 2°51.249 18.8772 0.009587 0.054306 -1.731873
2008-05-23 07:36:09 51°22.572 2°51.245 18.8723 0.009587 0.054307 -1.731873
2008-05-23 07:36:14 51°22.588 2°51.239 18.8939 0.009587 0.054307 -1.731873
2008-05-23 07:36:19 51°22.605 2°51.234 18.8928 0.009587 0.054307 -1.731873
2008-05-23 07:36:24 51°22.622 2°51.229 18.8835 0.009587 0.054307 -1.731873
2008-05-23 07:36:29 51°22.639 2°51.224 18.8922 0.009587 0.054307 -1.766697
2008-05-23 07:36:34 51°22.656 2°51.22 18.8884 0.009587 0.054307 -1.731873
2008-05-23 07:36:39 51°22.673 2°51.215 18.8854 0.009587 0.054307 -1.731873
2008-05-23 07:36:44 51°22.69 2°51.21 18.883 0.009587 0.054307 -1.731873
2008-05-23 07:36:49 51°22.707 2°51.206 18.8857 0.009587 0.054307 -1.731873
2008-05-23 07:36:54 51°22.724 2°51.202 18.8875 0.009587 0.054307 -1.731873
2008-05-23 07:36:59 51°22.741 2°51.198 18.9 0.009587 0.054307 -1.731873
2008-05-23 07:37:04 51°22.758 2°51.194 18.8878 0.009587 0.054307 -1.731873
2008-05-23 07:37:09 51°22.775 2°51.189 18.8987 0.009587 0.054307 -1.766697
2008-05-23 07:37:14 51°22.792 2°51.186 18.8915 0.009587 0.054307 -1.766697
2008-05-23 07:37:19 51°22.809 2°51.181 18.8951 0.009587 0.054307 -1.766697
2008-05-23 07:37:24 51°22.826 2°51.177 18.8972 0.009587 0.054307 -1.731873
2008-05-23 07:37:29 51°22.843 2°51.173 18.9002 0.009587 0.054307 -1.731873
2008-05-23 07:37:34 51°22.86 2°51.17 18.8882 0.009587 0.054307 -1.731873
2008-05-23 07:37:39 51°22.877 2°51.166 18.8989 0.009587 0.054307 -1.731873
2008-05-23 07:37:44 51°22.894 2°51.163 18.8945 0.009587 0.054308 -1.766697
2008-05-23 07:37:49 51°22.911 2°51.159 18.8961 0.009587 0.054308 -1.766697
2008-05-23 07:37:54 51°22.928 2°51.156 18.9088 0.009587 0.054308 -1.766697
2008-05-23 07:37:59 51°22.944 2°51.152 18.9094 0.009587 0.054308 -1.731873
2008-05-23 07:38:04 51°22.961 2°51.149 18.8987 0.009587 0.054308 -1.731873
2008-05-23 07:38:09 51°22.978 2°51.145 18.8989 0.009587 0.054308 -1.766697
2008-05-23 07:38:14 51°22.995 2°51.142 18.8953 0.009587 0.054309 -1.731873
2008-05-23 07:38:19 51°23.012 2°51.138 18.9147 0.009587 0.054309 -1.731873
2008-05-23 07:38:24 51°23.029 2°51.134 18.9172 0.009587 0.054308 -1.766697
2008-05-23 07:38:29 51°23.045 2°51.131 18.9032 0.009587 0.054308 -1.766697
2008-05-23 07:38:34 51°23.062 2°51.127 18.8919 0.009587 0.054308 -1.766697
2008-05-23 07:38:39 51°23.079 2°51.123 18.8984 0.009587 0.054308 -1.766697
2008-05-23 07:38:44 51°23.096 2°51.12 18.8881 0.009587 0.054309 -1.766697
2008-05-23 07:38:49 51°23.112 2°51.116 18.8935 0.009587 0.054309 -1.766697
2008-05-23 07:38:54 51°23.129 2°51.112 18.9085 0.009587 0.054309 -1.731873
2008-05-23 07:38:59 51°23.146 2°51.108 18.9068 0.009587 0.054309 -1.731873
2008-05-23 07:39:04 51°23.162 2°51.105 18.9094 0.009587 0.054309 -1.731873
2008-05-23 07:39:09 51°23.179 2°51.102 18.9207 0.009587 0.054309 -1.731873
2008-05-23 07:39:13 51°23.193 2°51.099 18.9011 0.009587 0.054309 -1.731873
2008-05-23 07:39:19 51°23.213 2°51.095 18.907 0.009587 0.054309 -1.731873
2008-05-23 07:39:24 51°23.229 2°51.092 18.9229 0.009587 0.054309 -1.766697
2008-05-23 07:39:29 51°23.246 2°51.088 18.9211 0.009587 0.054309 -1.766697
2008-05-23 07:39:34 51°23.263 2°51.084 18.9172 0.009587 0.054309 -1.766697
2008-05-23 07:39:39 51°23.279 2°51.081 18.9144 0.009587 0.054309 -1.731873
2008-05-23 07:39:44 51°23.296 2°51.077 18.912 0.009587 0.054309 -1.731873
2008-05-23 07:39:49 51°23.313 2°51.074 18.8963 0.009587 0.054309 -1.731873
2008-05-23 07:39:54 51°23.329 2°51.071 18.9111 0.009587 0.054309 -1.731873
2008-05-23 07:39:59 51°23.346 2°51.068 18.905 0.009587 0.054309 -1.766697
2008-05-23 07:40:04 51°23.363 2°51.065 18.9101 0.009587 0.054309 -1.731873
2008-05-23 07:40:09 51°23.38 2°51.063 18.9256 0.009587 0.054309 -1.731873
2008-05-23 07:40:14 51°23.397 2°51.06 18.9135 0.009587 0.054309 -1.731873
2008-05-23 07:40:19 51°23.414 2°51.057 18.9091 0.009587 0.054309 -1.731873
2008-05-23 07:40:24 51°23.43 2°51.054 18.9079 0.009587 0.054309 -1.731873
2008-05-23 07:40:29 51°23.447 2°51.052 18.9135 0.009587 0.054309 -1.731873
2008-05-23 07:40:34 51°23.464 2°51.05 18.9215 0.009587 0.05431 -1.731873
2008-05-23 07:40:39 51°23.481 2°51.047 18.918 0.009587 0.05431 -1.731873
2008-05-23 07:40:44 51°23.497 2°51.044 18.9068 0.009587 0.05431 -1.766697
2008-05-23 07:40:49 51°23.514 2°51.042 18.9095 0.009587 0.05431 -1.766697
2008-05-23 07:40:54 51°23.531 2°51.04 18.9231 0.009587 0.05431 -1.731873
2008-05-23 07:40:59 51°23.547 2°51.039 18.9255 0.009587 0.05431 -1.731873
2008-05-23 07:41:04 51°23.564 2°51.038 18.9303 0.009587 0.05431 -1.766697
2008-05-23 07:41:09 51°23.581 2°51.036 18.9231 0.009587 0.05431 -1.766697
2008-05-23 07:41:14 51°23.598 2°51.034 18.9343 0.009587 0.05431 -1.766697
2008-05-23 07:41:19 51°23.615 2°51.032 18.9196 0.009587 0.05431 -1.766697
2008-05-23 07:41:24 51°23.632 2°51.03 18.94 0.009587 0.054311 -1.766697
2008-05-23 07:41:29 51°23.649 2°51.028 18.9281 0.009587 0.054311 -1.766697
2008-05-23 07:41:34 51°23.666 2°51.026 18.9374 0.009587 0.054311 -1.731873
2008-05-23 07:41:39 51°23.683 2°51.023 18.9289 0.009587 0.054311 -1.766697
2008-05-23 07:41:44 51°23.7 2°51.02 18.9183 0.009587 0.054311 -1.766697
2008-05-23 07:41:49 51°23.717 2°51.017 18.9405 0.009587 0.054311 -1.766697
2008-05-23 07:41:54 51°23.734 2°51.013 18.9398 0.009587 0.054311 -1.731873
2008-05-23 07:41:59 51°23.751 2°51.01 18.9414 0.009587 0.054311 -1.731873
2008-05-23 07:42:04 51°23.768 2°51.006 18.9423 0.009587 0.054311 -1.766697
2008-05-23 07:42:09 51°23.785 2°51.003 18.941 0.009587 0.054311 -1.766697
2008-05-23 07:42:14 51°23.802 2°50.999 18.9359 0.009587 0.054311 -1.766697
2008-05-23 07:42:19 51°23.818 2°50.996 18.9395 0.009587 0.054311 -1.766697
2008-05-23 07:42:24 51°23.835 2°50.992 18.9333 0.009587 0.054311 -1.766697
2008-05-23 07:42:29 51°23.852 2°50.988 18.9226 0.009587 0.054311 -1.731873
2008-05-23 07:42:34 51°23.869 2°50.985 18.9397 0.009587 0.054311 -1.766697
2008-05-23 07:42:39 51°23.886 2°50.981 18.9349 0.009587 0.054311 -1.731873
2008-05-23 07:42:44 51°23.903 2°50.978 18.9341 0.009587 0.054311 -1.731873
2008-05-23 07:42:49 51°23.92 2°50.974 18.9396 0.009587 0.054311 -1.731873
2008-05-23 07:42:54 51°23.937 2°50.971 18.9456 0.009587 0.054311 -1.766697
2008-05-23 07:42:59 51°23.954 2°50.967 18.9424 0.009587 0.054311 -1.731873
2008-05-23 07:43:04 51°23.971 2°50.962 18.9458 0.009587 0.054311 -1.731873
2008-05-23 07:43:09 51°23.988 2°50.958 18.9554 0.009587 0.054311 -1.766697
2008-05-23 07:43:14 51°24.004 2°50.954 18.9291 0.009587 0.054312 -1.731873
2008-05-23 07:43:19 51°24.021 2°50.948 18.95 0.009587 0.054312 -1.731873
2008-05-23 07:43:24 51°24.038 2°50.943 18.9341 0.009587 0.054312 -1.731873
2008-05-23 07:43:29 51°24.055 2°50.938 18.9523 0.009587 0.054312 -1.731873
2008-05-23 07:43:34 51°24.072 2°50.933 18.9317 0.009587 0.054312 -1.766697
2008-05-23 07:43:39 51°24.088 2°50.927 18.9461 0.009587 0.054312 -1.731873
2008-05-23 07:43:44 51°24.105 2°50.922 18.9427 0.009587 0.054312 -1.731873
2008-05-23 07:43:49 51°24.122 2°50.917 18.9362 0.009587 0.054312 -1.731873
2008-05-23 07:43:54 51°24.139 2°50.912 18.9471 0.009587 0.054312 -1.731873
2008-05-23 07:43:59 51°24.156 2°50.907 18.9386 0.009587 0.054312 -1.731873
2008-05-23 07:44:04 51°24.173 2°50.903 18.9496 0.009587 0.054312 -1.731873
2008-05-23 07:44:09 51°24.19 2°50.899 18.9416 0.009587 0.054312 -1.766697
2008-05-23 07:44:14 51°24.207 2°50.896 18.9612 0.009587 0.054313 -1.731873
2008-05-23 07:44:19 51°24.224 2°50.892 18.9664 0.009587 0.054313 -1.731873
2008-05-23 07:44:24 51°24.241 2°50.888 18.9601 0.009587 0.054313 -1.766697
2008-05-23 07:44:29 51°24.258 2°50.884 18.9655 0.009587 0.054313 -1.731873
2008-05-23 07:44:34 51°24.275 2°50.88 18.9737 0.009587 0.054313 -1.731873
2008-05-23 07:44:39 51°24.291 2°50.875 18.9595 0.009587 0.054313 -1.766697
2008-05-23 07:44:44 51°24.308 2°50.87 18.9544 0.009587 0.054313 -1.731873
2008-05-23 07:44:49 51°24.325 2°50.865 18.9662 0.009587 0.054313 -1.731873
2008-05-23 07:44:54 51°24.342 2°50.859 18.9654 0.009587 0.054313 -1.731873
2008-05-23 07:44:59 51°24.358 2°50.854 18.9451 0.009587 0.054313 -1.731873
2008-05-23 07:45:04 51°24.375 2°50.849 18.9401 0.009587 0.054313 -1.766697
2008-05-23 07:45:09 51°24.392 2°50.844 18.9622 0.009587 0.054313 -1.731873
2008-05-23 07:45:14 51°24.409 2°50.839 18.9657 0.009587 0.054313 -1.731873
2008-05-23 07:45:19 51°24.426 2°50.835 18.967 0.009587 0.054313 -1.731873
2008-05-23 07:45:24 51°24.442 2°50.831 18.9578 0.009587 0.054314 -1.766697
2008-05-23 07:45:29 51°24.459 2°50.827 18.9689 0.009587 0.054314 -1.731873
2008-05-23 07:45:34 51°24.476 2°50.823 18.956 0.009587 0.054313 -1.766697
2008-05-23 07:45:39 51°24.493 2°50.819 18.9673 0.009587 0.054314 -1.731873
2008-05-23 07:45:44 51°24.51 2°50.815 18.9731 0.009587 0.054314 -1.731873
2008-05-23 07:45:49 51°24.527 2°50.811 18.962 0.009587 0.054314 -1.731873
2008-05-23 07:45:54 51°24.544 2°50.807 18.9648 0.009587 0.054314 -1.766697
2008-05-23 07:45:59 51°24.561 2°50.803 18.969 0.009587 0.054315 -1.766697
2008-05-23 07:46:04 51°24.577 2°50.799 18.9649 0.009587 0.054314 -1.731873
2008-05-23 07:46:09 51°24.594 2°50.795 18.9722 0.009587 0.054315 -1.766697
2008-05-23 07:46:14 51°24.611 2°50.79 18.9779 0.009587 0.054315 -1.766697
2008-05-23 07:46:19 51°24.627 2°50.785 18.966 0.009587 0.054315 -1.766697
2008-05-23 07:46:24 51°24.644 2°50.779 18.9649 0.009587 0.054315 -1.731873
2008-05-23 07:46:29 51°24.661 2°50.775 18.9612 0.009587 0.054315 -1.731873
2008-05-23 07:46:34 51°24.677 2°50.77 18.9662 0.009587 0.054315 -1.731873
2008-05-23 07:46:39 51°24.694 2°50.766 18.9636 0.009587 0.054315 -1.766697
2008-05-23 07:46:44 51°24.711 2°50.761 18.978 0.009587 0.054315 -1.731873
2008-05-23 07:46:49 51°24.727 2°50.757 18.9803 0.009587 0.054315 -1.731873
2008-05-23 07:46:54 51°24.744 2°50.754 18.9799 0.009587 0.054315 -1.731873
2008-05-23 07:46:59 51°24.761 2°50.75 18.9763 0.009587 0.054315 -1.731873
2008-05-23 07:47:04 51°24.777 2°50.747 18.9701 0.009587 0.054315 -1.731873
2008-05-23 07:47:09 51°24.794 2°50.744 18.9884 0.009587 0.054315 -1.766697
2008-05-23 07:47:14 51°24.81 2°50.741 18.9854 0.009587 0.054315 -1.731873
2008-05-23 07:47:19 51°24.827 2°50.738 18.9928 0.009587 0.054315 -1.731873
2008-05-23 07:47:24 51°24.844 2°50.735 18.9871 0.009587 0.054315 -1.731873
2008-05-23 07:47:29 51°24.86 2°50.731 18.9995 0.009587 0.054315 -1.766697
2008-05-23 07:47:34 51°24.877 2°50.727 18.9883 0.009587 0.054315 -1.731873
2008-05-23 07:47:39 51°24.894 2°50.722 18.99 0.009587 0.054315 -1.766697
2008-05-23 07:47:44 51°24.91 2°50.718 18.9969 0.009587 0.054315 -1.766697
2008-05-23 07:47:49 51°24.927 2°50.713 18.9858 0.009587 0.054315 -1.766697
2008-05-23 07:47:54 51°24.943 2°50.708 18.9989 0.009587 0.054316 -1.766697
2008-05-23 07:47:59 51°24.96 2°50.703 18.9926 0.009587 0.054316 -1.731873
2008-05-23 07:48:04 51°24.976 2°50.698 18.9856 0.009587 0.054316 -1.731873
2008-05-23 07:48:09 51°24.993 2°50.693 18.978 0.009587 0.054316 -1.766697
2008-05-23 07:48:14 51°25.009 2°50.688 18.9664 0.009587 0.054316 -1.766697
2008-05-23 07:48:19 51°25.026 2°50.684 18.9928 0.009587 0.054316 -1.766697
2008-05-23 07:48:24 51°25.042 2°50.679 18.9942 0.009587 0.054316 -1.766697
2008-05-23 07:48:29 51°25.059 2°50.674 18.9843 0.009587 0.054316 -1.766697
2008-05-23 07:48:34 51°25.075 2°50.67 18.9839 0.009587 0.054316 -1.766697
2008-05-23 07:48:39 51°25.092 2°50.665 19.0043 0.009587 0.054316 -1.766697
2008-05-23 07:48:44 51°25.109 2°50.661 18.9897 0.009587 0.054316 -1.731873
2008-05-23 07:48:49 51°25.125 2°50.656 19.0031 0.009587 0.054316 -1.731873
2008-05-23 07:48:54 51°25.142 2°50.651 18.9998 0.009587 0.054316 -1.731873
2008-05-23 07:48:59 51°25.158 2°50.647 19.0055 0.009587 0.054316 -1.766697
2008-05-23 07:49:04 51°25.175 2°50.642 18.9993 0.009587 0.054316 -1.731873
2008-05-23 07:49:09 51°25.191 2°50.638 18.9909 0.009587 0.054317 -1.766697
2008-05-23 07:49:14 51°25.208 2°50.633 19.003 0.009587 0.054316 -1.766697
2008-05-23 07:49:19 51°25.224 2°50.629 18.983 0.009587 0.054316 -1.766697
2008-05-23 07:49:24 51°25.241 2°50.625 19.0076 0.009587 0.054317 -1.766697
2008-05-23 07:49:29 51°25.258 2°50.621 19.0066 0.009587 0.054317 -1.731873
2008-05-23 07:49:34 51°25.274 2°50.617 19.0008 0.009587 0.054317 -1.731873
2008-05-23 07:49:39 51°25.291 2°50.612 19.0067 0.009587 0.054317 -1.766697
2008-05-23 07:49:44 51°25.308 2°50.608 18.9937 0.009587 0.054317 -1.766697
2008-05-23 07:49:49 51°25.324 2°50.604 19.0006 0.009587 0.054317 -1.766697
2008-05-23 07:49:54 51°25.341 2°50.6 19.0023 0.009587 0.054317 -1.731873
2008-05-23 07:49:59 51°25.357 2°50.596 18.9995 0.009587 0.054317 -1.731873
2008-05-23 07:50:04 51°25.374 2°50.592 19.0139 0.009587 0.054317 -1.731873
2008-05-23 07:50:09 51°25.391 2°50.588 19.0001 0.009587 0.054317 -1.731873
2008-05-23 07:50:14 51°25.407 2°50.583 19.008 0.009587 0.054317 -1.731873
2008-05-23 07:50:19 51°25.424 2°50.579 19.0035 0.009587 0.054317 -1.731873
2008-05-23 07:50:24 51°25.441 2°50.575 18.9987 0.009587 0.054317 -1.766697
2008-05-23 07:50:29 51°25.457 2°50.571 19.0083 0.009587 0.054317 -1.766697
2008-05-23 07:50:34 51°25.474 2°50.568 19.0068 0.009587 0.054317 -1.766697
2008-05-23 07:50:39 51°25.491 2°50.564 19.0175 0.009587 0.054317 -1.766697
2008-05-23 07:50:44 51°25.508 2°50.562 19.0088 0.009587 0.054317 -1.766697
2008-05-23 07:50:49 51°25.524 2°50.559 19.0082 0.009587 0.054317 -1.766697
2008-05-23 07:50:54 51°25.541 2°50.556 19.0116 0.009587 0.054317 -1.731873
2008-05-23 07:50:59 51°25.558 2°50.554 19.0182 0.009587 0.054317 -1.766697
2008-05-23 07:51:04 51°25.575 2°50.552 19.0243 0.009587 0.054317 -1.731873
2008-05-23 07:51:09 51°25.591 2°50.55 19.0218 0.009587 0.054317 -1.731873
2008-05-23 07:51:14 51°25.608 2°50.547 19.0108 0.009587 0.054317 -1.731873
2008-05-23 07:51:19 51°25.625 2°50.545 19.0137 0.009587 0.054317 -1.731873
2008-05-23 07:51:24 51°25.641 2°50.541 19.0207 0.009587 0.054317 -1.766697
2008-05-23 07:51:29 51°25.658 2°50.539 19.0149 0.009587 0.054317 -1.731873
2008-05-23 07:51:34 51°25.675 2°50.536 19.0206 0.009587 0.054317 -1.731873
2008-05-23 07:51:39 51°25.692 2°50.534 19.0239 0.009587 0.054317 -1.731873
2008-05-23 07:51:44 51°25.709 2°50.531 18.9997 0.009587 0.054317 -1.766697
2008-05-23 07:51:49 51°25.726 2°50.529 19.0137 0.009587 0.054317 -1.766697
2008-05-23 07:51:54 51°25.743 2°50.526 19.0313 0.009587 0.054317 -1.731873
2008-05-23 07:51:59 51°25.759 2°50.524 19.0271 0.009587 0.054317 -1.731873
2008-05-23 07:52:04 51°25.776 2°50.521 19.0254 0.009587 0.054317 -1.766697
2008-05-23 07:52:09 51°25.793 2°50.519 19.0139 0.009587 0.054317 -1.731873
2008-05-23 07:52:14 51°25.81 2°50.516 19.0258 0.009587 0.054317 -1.731873
2008-05-23 07:52:19 51°25.827 2°50.514 19.0229 0.009587 0.054317 -1.731873
2008-05-23 07:52:24 51°25.844 2°50.511 19.02 0.009587 0.054318 -1.731873
2008-05-23 07:52:29 51°25.861 2°50.509 19.0365 0.009587 0.054317 -1.731873
2008-05-23 07:52:34 51°25.878 2°50.507 19.0405 0.009587 0.054318 -1.766697
2008-05-23 07:52:39 51°25.895 2°50.504 19.024 0.009587 0.054318 -1.731873
2008-05-23 07:52:44 51°25.912 2°50.502 19.0255 0.009587 0.054318 -1.731873
2008-05-23 07:52:49 51°25.929 2°50.499 19.0372 0.009587 0.054318 -1.731873
2008-05-23 07:52:54 51°25.946 2°50.496 19.0348 0.009587 0.054318 -1.731873
2008-05-23 07:52:59 51°25.963 2°50.494 19.0365 0.009587 0.054318 -1.731873
2008-05-23 07:53:04 51°25.98 2°50.491 19.0375 0.009587 0.054318 -1.731873
2008-05-23 07:53:09 51°25.997 2°50.488 19.0499 0.009587 0.054318 -1.766697
2008-05-23 07:53:13 51°26.01 2°50.486 19.0229 0.009587 0.054318 -1.766697
2008-05-23 07:53:19 51°26.03 2°50.481 19.0374 0.009587 0.054318 -1.766697
2008-05-23 07:53:24 51°26.047 2°50.478 19.0471 0.009587 0.054318 -1.731873
2008-05-23 07:53:29 51°26.064 2°50.473 19.0464 0.009587 0.054319 -1.766697
2008-05-23 07:53:34 51°26.081 2°50.469 19.0424 0.009587 0.054319 -1.731873
2008-05-23 07:53:39 51°26.098 2°50.465 19.0205 0.009587 0.054319 -1.766697
2008-05-23 07:53:44 51°26.115 2°50.461 19.0397 0.009587 0.054318 -1.766697
2008-05-23 07:53:49 51°26.131 2°50.457 19.0347 0.009587 0.054318 -1.766697
2008-05-23 07:53:54 51°26.148 2°50.453 19.045 0.009587 0.054319 -1.766697
2008-05-23 07:53:59 51°26.165 2°50.45 19.0203 0.009587 0.054319 -1.731873
2008-05-23 07:54:04 51°26.181 2°50.446 19.0373 0.009587 0.054319 -1.766697
2008-05-23 07:54:09 51°26.198 2°50.444 19.0356 0.009587 0.054319 -1.766697
2008-05-23 07:54:14 51°26.215 2°50.441 19.0336 0.009587 0.054319 -1.766697
2008-05-23 07:54:19 51°26.232 2°50.439 19.0504 0.009587 0.054319 -1.766697
2008-05-23 07:54:24 51°26.249 2°50.436 19.0384 0.009587 0.054319 -1.731873
2008-05-23 07:54:29 51°26.265 2°50.434 19.0432 0.009587 0.054319 -1.731873
2008-05-23 07:54:34 51°26.282 2°50.431 19.0553 0.009587 0.054319 -1.731873
2008-05-23 07:54:39 51°26.299 2°50.428 19.0489 0.009587 0.054319 -1.731873
2008-05-23 07:54:44 51°26.316 2°50.426 19.058 0.009587 0.054319 -1.731873
2008-05-23 07:54:49 51°26.332 2°50.423 19.0462 0.009587 0.054319 -1.731873
2008-05-23 07:54:54 51°26.349 2°50.42 19.0532 0.009587 0.054319 -1.766697
2008-05-23 07:54:59 51°26.366 2°50.418 19.0414 0.009587 0.054319 -1.731873
2008-05-23 07:55:04 51°26.383 2°50.415 19.0607 0.009587 0.054319 -1.731873
2008-05-23 07:55:09 51°26.4 2°50.413 19.0392 0.009587 0.054319 -1.731873
2008-05-23 07:55:14 51°26.416 2°50.41 19.06 0.009587 0.054319 -1.766697
2008-05-23 07:55:19 51°26.433 2°50.407 19.0357 0.009587 0.054319 -1.766697
2008-05-23 07:55:24 51°26.45 2°50.405 19.0593 0.009587 0.054319 -1.766697
2008-05-23 07:55:29 51°26.467 2°50.402 19.0603 0.009587 0.054319 -1.766697
2008-05-23 07:55:34 51°26.483 2°50.399 19.0524 0.009587 0.054319 -1.731873
2008-05-23 07:55:39 51°26.5 2°50.397 19.0604 0.009587 0.054319 -1.731873
2008-05-23 07:55:44 51°26.517 2°50.394 19.0489 0.009587 0.054319 -1.731873
2008-05-23 07:55:49 51°26.534 2°50.391 19.0673 0.009587 0.054319 -1.731873
2008-05-23 07:55:54 51°26.551 2°50.388 19.0502 0.009587 0.054319 -1.766697
2008-05-23 07:55:59 51°26.568 2°50.384 19.0549 0.009587 0.054319 -1.731873
2008-05-23 07:56:04 51°26.584 2°50.381 19.0517 0.009587 0.054319 -1.766697
2008-05-23 07:56:09 51°26.601 2°50.379 19.0687 0.009587 0.054319 -1.731873
2008-05-23 07:56:14 51°26.618 2°50.375 19.0642 0.009587 0.054319 -1.731873
2008-05-23 07:56:19 51°26.635 2°50.373 19.0545 0.009587 0.054319 -1.731873
2008-05-23 07:56:24 51°26.652 2°50.37 19.0595 0.009587 0.054319 -1.766697
2008-05-23 07:56:29 51°26.668 2°50.367 19.0558 0.009587 0.054319 -1.731873
2008-05-23 07:56:34 51°26.685 2°50.364 19.071 0.009587 0.054319 -1.766697
2008-05-23 07:56:39 51°26.702 2°50.361 19.0566 0.009587 0.054319 -1.731873
2008-05-23 07:56:44 51°26.719 2°50.358 19.0714 0.009587 0.054319 -1.731873
2008-05-23 07:56:49 51°26.736 2°50.355 19.0708 0.009587 0.054319 -1.731873
2008-05-23 07:56:54 51°26.753 2°50.352 19.0722 0.009587 0.05432 -1.731873
2008-05-23 07:56:59 51°26.769 2°50.349 19.0544 0.009587 0.054319 -1.731873
2008-05-23 07:57:04 51°26.786 2°50.345 19.0556 0.009587 0.054319 -1.731873
2008-05-23 07:57:09 51°26.803 2°50.342 19.0791 0.009587 0.05432 -1.731873
2008-05-23 07:57:13 51°26.816 2°50.339 19.0678 0.009587 0.054319 -1.766697
2008-05-23 07:57:19 51°26.836 2°50.335 19.0724 0.009587 0.054319 -1.766697
2008-05-23 07:57:24 51°26.853 2°50.331 19.066 0.009587 0.054319 -1.766697
2008-05-23 07:57:29 51°26.87 2°50.327 19.0707 0.009587 0.054319 -1.766697
2008-05-23 07:57:34 51°26.887 2°50.324 19.0741 0.009587 0.054319 -1.731873
2008-05-23 07:57:39 51°26.903 2°50.319 19.0876 0.009587 0.054319 -1.731873
2008-05-23 07:57:44 51°26.92 2°50.315 19.0746 0.009587 0.054319 -1.766697
2008-05-23 07:57:49 51°26.937 2°50.31 19.0742 0.009587 0.054319 -1.766697
2008-05-23 07:57:54 51°26.953 2°50.306 19.0762 0.009587 0.054319 -1.731873
2008-05-23 07:57:59 51°26.97 2°50.301 19.0813 0.009587 0.054319 -1.766697
2008-05-23 07:58:04 51°26.987 2°50.297 19.0606 0.009587 0.054319 -1.731873
2008-05-23 07:58:09 51°27.003 2°50.293 19.0833 0.009587 0.054319 -1.766697
2008-05-23 07:58:14 51°27.02 2°50.289 19.0817 0.009587 0.054319 -1.731873
2008-05-23 07:58:19 51°27.036 2°50.285 19.0767 0.009587 0.054319 -1.731873
2008-05-23 07:58:24 51°27.053 2°50.28 19.0716 0.009587 0.054319 -1.731873
2008-05-23 07:58:29 51°27.069 2°50.276 19.0705 0.009587 0.054319 -1.731873
2008-05-23 07:58:34 51°27.086 2°50.272 19.0907 0.009587 0.054319 -1.766697
2008-05-23 07:58:39 51°27.103 2°50.269 19.0701 0.009587 0.054319 -1.731873
2008-05-23 07:58:44 51°27.119 2°50.264 19.0858 0.009587 0.054319 -1.731873
2008-05-23 07:58:49 51°27.136 2°50.261 19.0871 0.009587 0.054319 -1.731873
2008-05-23 07:58:54 51°27.153 2°50.256 19.0786 0.009587 0.054319 -1.766697
2008-05-23 07:58:59 51°27.169 2°50.252 19.0862 0.009587 0.054319 -1.731873
2008-05-23 07:59:04 51°27.186 2°50.248 19.0798 0.009587 0.054319 -1.731873
2008-05-23 07:59:09 51°27.202 2°50.244 19.0919 0.009587 0.054319 -1.766697
2008-05-23 07:59:14 51°27.219 2°50.24 19.0928 0.009587 0.054319 -1.731873
2008-05-23 07:59:19 51°27.235 2°50.237 19.0912 0.009587 0.054319 -1.731873
2008-05-23 07:59:24 51°27.252 2°50.233 19.082 0.009587 0.05432 -1.731873
2008-05-23 07:59:29 51°27.269 2°50.229 19.0797 0.009587 0.054319 -1.766697
2008-05-23 07:59:33 51°27.282 2°50.226 19.1013 0.009587 0.054319 -1.731873
2008-05-23 07:59:39 51°27.302 2°50.222 19.095 0.009587 0.054319 -1.766697
2008-05-23 07:59:44 51°27.318 2°50.218 19.0959 0.009587 0.054319 -1.731873
2008-05-23 07:59:49 51°27.335 2°50.215 19.1037 0.009587 0.054319 -1.731873
2008-05-23 07:59:54 51°27.352 2°50.211 19.0949 0.009587 0.054319 -1.766697
2008-05-23 07:59:59 51°27.368 2°50.208 19.0905 0.009587 0.054319 -1.766697
2008-05-23 08:00:04 51°27.385 2°50.204 19.1034 0.009587 0.054319 -1.731873
2008-05-23 08:00:09 51°27.402 2°50.201 19.0974 0.009587 0.054319 -1.731873
2008-05-23 08:00:14 51°27.419 2°50.197 19.1006 0.009587 0.054319 -1.766697
2008-05-23 08:00:19 51°27.436 2°50.194 19.1032 0.009587 0.054319 -1.766697
2008-05-23 08:00:24 51°27.453 2°50.19 19.1016 0.009587 0.054319 -1.731873
2008-05-23 08:00:29 51°27.469 2°50.187 19.0955 0.009587 0.054319 -1.731873
2008-05-23 08:00:34 51°27.486 2°50.184 19.1071 0.009587 0.054319 -1.766697
2008-05-23 08:00:39 51°27.503 2°50.18 19.095 0.009587 0.054319 -1.766697
2008-05-23 08:00:44 51°27.52 2°50.177 19.0981 0.009587 0.054319 -1.766697
2008-05-23 08:00:49 51°27.537 2°50.173 19.1031 0.009587 0.054319 -1.766697
2008-05-23 08:00:54 51°27.554 2°50.169 19.1014 0.009587 0.054319 -1.766697
2008-05-23 08:00:59 51°27.57 2°50.166 19.1023 0.009587 0.054319 -1.731873
2008-05-23 08:01:04 51°27.587 2°50.162 19.1001 0.009587 0.054319 -1.766697
2008-05-23 08:01:09 51°27.604 2°50.159 19.097 0.009587 0.054319 -1.766697
2008-05-23 08:01:14 51°27.621 2°50.156 19.102 0.009587 0.054319 -1.731873
2008-05-23 08:01:19 51°27.638 2°50.152 19.0974 0.009587 0.054319 -1.731873
2008-05-23 08:01:24 51°27.655 2°50.149 19.1165 0.009587 0.054319 -1.766697
2008-05-23 08:01:29 51°27.672 2°50.146 19.1047 0.009587 0.054319 -1.731873
2008-05-23 08:01:34 51°27.689 2°50.142 19.1084 0.009587 0.054319 -1.766697
2008-05-23 08:01:39 51°27.705 2°50.139 19.1086 0.009587 0.054319 -1.766697
2008-05-23 08:01:44 51°27.722 2°50.136 19.1097 0.009587 0.054319 -1.731873
2008-05-23 08:01:49 51°27.739 2°50.133 19.1058 0.009587 0.054319 -1.731873
2008-05-23 08:01:53 51°27.753 2°50.13 19.1184 0.009587 0.054319 -1.766697
2008-05-23 08:01:59 51°27.773 2°50.126 19.1173 0.009587 0.054319 -1.731873
2008-05-23 08:02:04 51°27.79 2°50.123 19.1169 0.009587 0.054319 -1.731873
2008-05-23 08:02:09 51°27.807 2°50.12 19.124 0.009587 0.054319 -1.766697
2008-05-23 08:02:14 51°27.824 2°50.117 19.1241 0.009587 0.054319 -1.766697
2008-05-23 08:02:19 51°27.841 2°50.114 19.1035 0.009587 0.054319 -1.766697
2008-05-23 08:02:24 51°27.858 2°50.111 19.106 0.009587 0.054319 -1.766697
2008-05-23 08:02:29 51°27.875 2°50.108 19.131 0.009587 0.054319 -1.766697
2008-05-23 08:02:34 51°27.892 2°50.106 19.1087 0.009587 0.054319 -1.766697
2008-05-23 08:02:39 51°27.909 2°50.103 19.1183 0.009587 0.054319 -1.731873
2008-05-23 08:02:44 51°27.926 2°50.1 19.1249 0.009587 0.054319 -1.766697
2008-05-23 08:02:49 51°27.943 2°50.097 19.1114 0.009587 0.054319 -1.766697
2008-05-23 08:02:54 51°27.96 2°50.094 19.1266 0.009587 0.054319 -1.731873
2008-05-23 08:02:59 51°27.977 2°50.092 19.1225 0.009587 0.054319 -1.731873
2008-05-23 08:03:04 51°27.994 2°50.089 19.1189 0.009587 0.054319 -1.766697
2008-05-23 08:03:09 51°28.011 2°50.086 19.1169 0.009587 0.054319 -1.731873
2008-05-23 08:03:14 51°28.028 2°50.083 19.1284 0.009587 0.054319 -1.731873
2008-05-23 08:03:19 51°28.045 2°50.08 19.1297 0.009587 0.054319 -1.731873
2008-05-23 08:03:24 51°28.061 2°50.076 19.1245 0.009587 0.054319 -1.731873
2008-05-23 08:03:29 51°28.078 2°50.073 19.1253 0.009587 0.054319 -1.731873
2008-05-23 08:03:34 51°28.095 2°50.07 19.1119 0.009587 0.054319 -1.766697
2008-05-23 08:03:39 51°28.111 2°50.067 19.1296 0.009587 0.054319 -1.731873
2008-05-23 08:03:44 51°28.128 2°50.064 19.1279 0.009587 0.054319 -1.731873
2008-05-23 08:03:49 51°28.144 2°50.061 19.1342 0.009587 0.054319 -1.731873
2008-05-23 08:03:54 51°28.161 2°50.058 19.1258 0.009587 0.054319 -1.731873
2008-05-23 08:03:59 51°28.178 2°50.056 19.1162 0.009587 0.054319 -1.731873
2008-05-23 08:04:04 51°28.195 2°50.054 19.1316 0.009587 0.054319 -1.766697
2008-05-23 08:04:09 51°28.211 2°50.052 19.1286 0.009587 0.054319 -1.731873
2008-05-23 08:04:13 51°28.225 2°50.051 19.1275 0.009587 0.054319 -1.766697
2008-05-23 08:04:19 51°28.245 2°50.048 19.136 0.009587 0.054319 -1.766697
2008-05-23 08:04:24 51°28.261 2°50.047 19.1266 0.009587 0.054318 -1.766697
2008-05-23 08:04:29 51°28.278 2°50.045 19.1393 0.009587 0.054319 -1.731873
2008-05-23 08:04:34 51°28.295 2°50.043 19.1302 0.009587 0.054319 -1.731873
2008-05-23 08:04:39 51°28.312 2°50.04 19.1332 0.009587 0.054319 -1.731873
2008-05-23 08:04:44 51°28.328 2°50.038 19.1522 0.009587 0.054319 -1.766697
2008-05-23 08:04:49 51°28.345 2°50.035 19.1524 0.009587 0.054319 -1.766697
2008-05-23 08:04:54 51°28.362 2°50.032 19.1269 0.009587 0.054319 -1.766697
2008-05-23 08:04:59 51°28.378 2°50.029 19.1308 0.009587 0.054319 -1.731873
2008-05-23 08:05:04 51°28.395 2°50.025 19.1469 0.009587 0.054319 -1.731873
2008-05-23 08:05:09 51°28.412 2°50.021 19.1521 0.009587 0.054319 -1.766697
2008-05-23 08:05:14 51°28.428 2°50.016 19.1312 0.009587 0.054318 -1.731873
2008-05-23 08:05:19 51°28.445 2°50.012 19.1534 0.009587 0.054318 -1.731873
2008-05-23 08:05:24 51°28.461 2°50.007 19.1433 0.009587 0.054319 -1.766697
2008-05-23 08:05:29 51°28.478 2°50.003 19.1348 0.009587 0.054319 -1.731873
2008-05-23 08:05:34 51°28.494 2°49.999 19.151 0.009587 0.054319 -1.731873
2008-05-23 08:05:39 51°28.511 2°49.995 19.1546 0.009587 0.054318 -1.731873
2008-05-23 08:05:44 51°28.527 2°49.991 19.149 0.009587 0.054318 -1.731873